GFSNGP_500_temp_000.txt.gz
Temp
-15 -14 -14 -14 -14 -15 -16 -16 -16 -15 -17 -16 -17 -16 -16 -16 -16 -17 -16 -17 -18 -18 -19 -19 -18 -19 -20 -20 -19 -19 -20 -20 -21 -22 -23 -24 -25 -25 -25 -25 -25 -25 -26 -26
-14 -15 -15 -14 -16 -16 -15 -16 -15 -15 -15 -17 -16 -16 -16 -17 -17 -17 -17 -17 -18 -19 -19 -19 -20 -20 -20 -20 -20 -20 -20 -21 -23 -23 -24 -24 -25 -25 -25 -26 -26 -26 -26 -26
-14 -15 -15 -14 -15 -15 -15 -16 -17 -17 -17 -17 -17 -17 -17 -17 -17 -17 -18 -18 -18 -18 -19 -19 -20 -20 -20 -20 -20 -21 -22 -23 -23 -24 -25 -26 -26 -26 -26 -26 -26 -27 -27 -27
-16 -15 -15 -16 -17 -17 -17 -17 -18 -18 -18 -17 -17 -17 -18 -19 -19 -18 -18 -19 -19 -19 -19 -20 -20 -21 -21 -21 -21 -22 -23 -24 -25 -25 -26 -26 -26 -26 -26 -27 -27 -27 -28 -28
-16 -16 -15 -15 -17 -18 -18 -18 -18 -18 -18 -19 -19 -19 -19 -19 -19 -20 -20 -19 -20 -20 -20 -20 -21 -21 -21 -21 -22 -23 -24 -25 -25 -26 -26 -26 -26 -26 -27 -27 -27 -28 -29 -30
-17 -16 -15 -16 -18 -18 -18 -17 -19 -19 -20 -19 -19 -19 -19 -19 -19 -19 -19 -19 -20 -21 -21 -21 -21 -21 -22 -22 -23 -24 -25 -26 -26 -26 -26 -26 -26 -27 -27 -28 -28 -29 -30 -31
-18 -17 -16 -18 -18 -18 -19 -18 -19 -19 -20 -20 -20 -20 -20 -19 -19 -19 -20 -21 -21 -21 -21 -21 -22 -22 -23 -24 -24 -25 -26 -26 -26 -27 -27 -27 -27 -28 -28 -28 -29 -30 -31 -32
-18 -18 -18 -19 -19 -20 -20 -19 -20 -19 -20 -20 -20 -20 -19 -20 -21 -21 -20 -21 -22 -22 -22 -22 -23 -24 -25 -25 -26 -26 -26 -27 -27 -27 -27 -28 -28 -28 -28 -29 -30 -31 -31 -31
-19 -19 -19 -19 -20 -19 -20 -20 -20 -20 -20 -21 -20 -20 -20 -21 -21 -22 -22 -22 -22 -23 -23 -24 -24 -26 -26 -26 -27 -27 -27 -27 -27 -28 -28 -28 -28 -28 -29 -30 -31 -32 -31 -31
-19 -19 -19 -19 -20 -20 -20 -20 -20 -20 -21 -20 -20 -20 -21 -21 -22 -22 -23 -23 -23 -23 -24 -25 -26 -26 -27 -27 -27 -27 -28 -28 -28 -28 -29 -29 -29 -29 -30 -31 -31 -31 -31 -30
-19 -19 -19 -19 -20 -21 -21 -21 -21 -21 -21 -21 -22 -23 -23 -23 -23 -23 -23 -23 -24 -25 -26 -26 -27 -27 -27 -28 -28 -28 -28 -28 -29 -29 -29 -29 -29 -30 -31 -31 -31 -31 -30 -30
-19 -19 -20 -20 -20 -20 -21 -21 -21 -21 -21 -21 -23 -23 -23 -23 -24 -24 -24 -24 -25 -26 -27 -27 -27 -28 -28 -28 -28 -28 -29 -29 -29 -29 -29 -30 -30 -31 -32 -32 -32 -31 -30 -30
-21 -20 -20 -20 -20 -21 -21 -21 -21 -21 -23 -23 -22 -23 -24 -24 -24 -25 -25 -26 -27 -27 -27 -28 -28 -28 -28 -29 -29 -29 -29 -29 -29 -30 -30 -30 -31 -32 -33 -33 -32 -31 -31 -30
-21 -21 -20 -21 -21 -21 -21 -22 -22 -24 -24 -25 -24 -25 -25 -25 -25 -25 -26 -27 -28 -28 -28 -28 -28 -28 -29 -29 -29 -29 -30 -30 -30 -31 -31 -32 -33 -33 -33 -33 -32 -32 -31 -30
-21 -21 -22 -22 -22 -22 -23 -24 -25 -24 -25 -25 -25 -26 -26 -26 -26 -27 -28 -28 -28 -28 -29 -29 -29 -29 -29 -29 -30 -30 -30 -31 -31 -32 -33 -34 -34 -34 -33 -33 -32 -32 -31 -30
-22 -22 -22 -22 -23 -24 -24 -24 -24 -24 -26 -26 -27 -26 -26 -27 -28 -28 -28 -29 -29 -29 -29 -29 -29 -30 -30 -30 -30 -31 -31 -32 -33 -34 -35 -34 -34 -34 -33 -33 -32 -31 -31 -31
-22 -22 -23 -24 -25 -25 -25 -25 -25 -26 -26 -26 -27 -27 -28 -28 -29 -29 -29 -29 -29 -29 -29 -29 -30 -30 -30 -30 -31 -32 -33 -34 -35 -35 -35 -35 -35 -34 -33 -33 -32 -31 -31 -31
-23 -24 -25 -26 -26 -26 -26 -27 -27 -26 -27 -27 -28 -28 -29 -29 -29 -29 -29 -29 -30 -30 -30 -30 -30 -30 -31 -32 -33 -34 -35 -35 -36 -36 -35 -35 -34 -34 -33 -33 -32 -32 -31 -31
-25 -26 -27 -27 -27 -27 -27 -27 -27 -27 -28 -28 -29 -29 -29 -29 -29 -29 -30 -30 -30 -30 -30 -30 -30 -31 -33 -34 -35 -35 -36 -36 -36 -36 -35 -35 -34 -34 -33 -33 -32 -32 -31 -31
-26 -27 -27 -27 -27 -27 -27 -28 -28 -28 -29 -29 -30 -29 -29 -29 -29 -30 -30 -30 -30 -30 -30 -30 -31 -33 -34 -35 -35 -36 -36 -36 -36 -36 -35 -35 -34 -34 -33 -33 -32 -32 -31 -31
-28 -28 -28 -28 -28 -28 -29 -29 -29 -29 -30 -30 -29 -29 -29 -30 -30 -30 -30 -30 -30 -30 -30 -32 -33 -35 -35 -35 -36 -36 -36 -36 -36 -36 -35 -35 -34 -34 -33 -33 -32 -32 -31 -31
-29 -29 -29 -29 -29 -29 -29 -30 -30 -30 -30 -29 -30 -29 -30 -30 -30 -30 -30 -30 -30 -30 -31 -33 -34 -35 -35 -36 -36 -36 -36 -36 -36 -36 -35 -35 -34 -34 -34 -33 -32 -32 -32 -31
-30 -30 -30 -30 -30 -30 -30 -30 -30 -30 -30 -30 -30 -30 -30 -30 -30 -31 -31 -30 -31 -31 -33 -34 -35 -35 -35 -36 -36 -36 -36 -36 -36 -36 -35 -35 -34 -34 -34 -33 -33 -32 -32 -32
-31 -30 -30 -30 -30 -30 -30 -30 -30 -30 -30 -30 -30 -30 -30 -31 -31 -31 -31 -31 -31 -33 -34 -34 -35 -35 -36 -36 -36 -36 -36 -36 -36 -36 -35 -35 -34 -34 -34 -34 -33 -32 -32 -32
-31 -31 -31 -30 -30 -30 -30 -30 -30 -30 -30 -30 -30 -31 -31 -31 -31 -31 -31 -32 -32 -33 -34 -34 -35 -36 -36 -36 -36 -36 -36 -36 -36 -36 -35 -35 -35 -34 -34 -34 -33 -33 -32 -32
-31 -31 -31 -31 -31 -31 -30 -30 -30 -30 -30 -31 -31 -31 -31 -31 -32 -32 -32 -32 -33 -33 -34 -35 -35 -36 -36 -36 -36 -36 -37 -36 -36 -36 -36 -35 -35 -35 -34 -34 -33 -33 -33 -33
-31 -31 -31 -31 -31 -31 -30 -30 -30 -30 -31 -31 -31 -31 -32 -32 -32 -32 -32 -33 -33 -33 -34 -35 -35 -35 -36 -36 -36 -36 -36 -36 -36 -36 -36 -36 -35 -35 -35 -34 -34 -34 -33 -33

GFSNGP_500_temp_003.txt.gz
Temp
-15 -15 -16 -16 -16 -16 -16 -16 -16 -15 -17 -18 -18 -17 -17 -18 -18 -18 -18 -18 -18 -19 -19 -19 -18 -19 -19 -20 -20 -21 -21 -20 -21 -21 -22 -23 -24 -25 -25 -25 -26 -26 -26 -26
-15 -15 -16 -16 -16 -15 -16 -17 -17 -17 -17 -18 -18 -17 -18 -19 -19 -19 -19 -19 -19 -19 -19 -19 -19 -19 -20 -20 -21 -21 -21 -22 -22 -23 -24 -25 -25 -25 -26 -27 -26 -27 -27 -27
-15 -16 -15 -16 -16 -16 -16 -17 -17 -17 -17 -17 -18 -18 -18 -19 -19 -19 -19 -20 -20 -20 -19 -19 -19 -20 -20 -21 -21 -22 -22 -23 -23 -25 -26 -26 -27 -27 -27 -27 -27 -27 -27 -28
-16 -16 -15 -16 -17 -18 -17 -17 -18 -18 -18 -18 -18 -18 -20 -20 -19 -20 -20 -20 -20 -20 -20 -20 -20 -21 -22 -22 -22 -22 -23 -24 -25 -26 -27 -27 -27 -27 -27 -27 -27 -27 -28 -28
-16 -15 -15 -16 -17 -17 -17 -16 -17 -17 -18 -19 -19 -19 -19 -20 -20 -20 -20 -20 -20 -20 -20 -21 -22 -22 -23 -22 -23 -23 -24 -26 -26 -27 -27 -27 -27 -27 -27 -27 -28 -28 -28 -29
-16 -16 -15 -17 -17 -18 -18 -17 -18 -19 -19 -19 -19 -19 -19 -20 -20 -20 -20 -21 -20 -21 -22 -22 -23 -23 -23 -23 -24 -25 -26 -27 -27 -27 -27 -28 -28 -28 -28 -28 -28 -29 -29 -29
-17 -17 -17 -18 -18 -19 -19 -18 -19 -19 -19 -19 -20 -20 -21 -20 -20 -21 -21 -21 -22 -23 -23 -23 -24 -24 -24 -24 -25 -27 -27 -28 -28 -28 -28 -28 -28 -28 -28 -29 -29 -29 -29 -30
-17 -18 -18 -19 -19 -20 -20 -20 -20 -20 -20 -20 -21 -21 -21 -21 -21 -21 -21 -22 -23 -24 -24 -24 -24 -25 -25 -26 -27 -28 -28 -28 -28 -28 -28 -28 -29 -29 -29 -29 -29 -29 -30 -31
-19 -18 -19 -20 -21 -20 -21 -21 -20 -20 -20 -20 -20 -21 -21 -21 -21 -22 -22 -23 -24 -24 -24 -25 -25 -26 -27 -28 -28 -29 -29 -29 -29 -29 -29 -29 -29 -29 -29 -29 -29 -30 -31 -31
-19 -19 -19 -20 -20 -21 -20 -20 -21 -21 -21 -21 -22 -22 -22 -23 -22 -23 -24 -24 -25 -25 -25 -25 -26 -27 -28 -29 -29 -29 -29 -29 -29 -29 -29 -30 -30 -30 -29 -29 -29 -30 -31 -31
-19 -20 -19 -19 -20 -20 -20 -21 -21 -21 -21 -22 -22 -22 -23 -24 -24 -24 -24 -25 -26 -26 -26 -26 -28 -28 -28 -29 -29 -29 -29 -29 -29 -30 -30 -30 -30 -30 -30 -30 -30 -31 -32 -31
-20 -20 -20 -20 -20 -21 -21 -21 -21 -22 -22 -22 -23 -23 -24 -24 -25 -25 -25 -25 -26 -26 -27 -28 -29 -29 -29 -29 -29 -29 -29 -30 -30 -30 -30 -30 -30 -31 -31 -32 -32 -32 -32 -31
-21 -21 -21 -21 -21 -21 -21 -22 -22 -23 -23 -24 -24 -24 -25 -25 -25 -25 -25 -26 -27 -28 -29 -29 -29 -29 -30 -30 -30 -30 -30 -30 -30 -30 -31 -31 -32 -32 -33 -33 -34 -33 -32 -32
-21 -21 -21 -21 -22 -22 -23 -23 -23 -24 -25 -25 -25 -26 -26 -25 -26 -27 -27 -28 -28 -29 -29 -29 -29 -30 -30 -30 -30 -30 -30 -31 -31 -32 -33 -33 -34 -34 -34 -34 -34 -33 -32 -32
-21 -21 -22 -22 -22 -23 -23 -23 -24 -25 -26 -26 -26 -26 -26 -26 -27 -27 -28 -29 -30 -30 -29 -30 -30 -30 -30 -30 -30 -31 -31 -32 -33 -34 -34 -35 -36 -35 -35 -34 -34 -33 -33 -32
-21 -22 -22 -22 -23 -23 -25 -25 -26 -27 -27 -27 -27 -27 -27 -27 -28 -29 -29 -30 -30 -30 -30 -30 -30 -30 -30 -30 -31 -32 -33 -34 -35 -35 -36 -36 -36 -35 -35 -34 -34 -33 -33 -32
-22 -23 -24 -26 -25 -25 -26 -26 -27 -27 -28 -28 -28 -28 -28 -29 -29 -30 -30 -30 -30 -30 -30 -30 -30 -30 -30 -31 -32 -34 -35 -35 -36 -36 -36 -36 -36 -35 -35 -34 -33 -33 -33 -32
-24 -25 -25 -26 -27 -27 -27 -27 -28 -28 -28 -28 -28 -29 -29 -29 -30 -30 -30 -30 -30 -30 -30 -30 -30 -30 -31 -33 -34 -35 -35 -36 -36 -36 -36 -36 -35 -35 -34 -34 -33 -33 -32 -32
-26 -26 -27 -27 -28 -28 -28 -29 -28 -29 -29 -29 -29 -30 -30 -30 -30 -30 -30 -30 -30 -30 -30 -30 -31 -31 -33 -34 -35 -35 -36 -36 -36 -36 -36 -35 -35 -35 -34 -33 -33 -32 -32 -32
-26 -27 -28 -28 -29 -29 -29 -29 -29 -29 -29 -30 -30 -30 -30 -30 -30 -30 -30 -30 -30 -30 -30 -30 -31 -32 -34 -35 -35 -36 -36 -36 -36 -36 -36 -35 -35 -35 -34 -33 -33 -32 -32 -32
-28 -29 -30 -30 -30 -30 -30 -30 -30 -30 -30 -30 -30 -30 -30 -30 -30 -30 -30 -31 -31 -31 -31 -31 -32 -34 -34 -35 -35 -36 -36 -36 -36 -36 -36 -35 -35 -35 -34 -34 -33 -32 -32 -32
-30 -30 -30 -30 -30 -30 -30 -30 -30 -31 -31 -30 -31 -30 -30 -30 -30 -30 -31 -31 -31 -31 -31 -31 -33 -34 -34 -35 -36 -36 -36 -36 -36 -36 -36 -35 -35 -35 -34 -34 -33 -33 -32 -32
-30 -31 -31 -31 -31 -31 -31 -30 -31 -31 -31 -31 -30 -30 -30 -30 -31 -31 -31 -31 -31 -31 -32 -32 -33 -34 -34 -35 -36 -36 -36 -36 -36 -36 -36 -36 -35 -35 -34 -34 -33 -33 -32 -32
-31 -31 -31 -31 -31 -31 -31 -31 -31 -31 -31 -31 -30 -30 -31 -31 -31 -31 -32 -32 -32 -32 -32 -33 -33 -34 -35 -35 -36 -36 -36 -36 -36 -36 -36 -36 -35 -35 -34 -34 -34 -33 -33 -32
-31 -31 -32 -32 -32 -32 -32 -32 -31 -31 -31 -31 -31 -31 -31 -31 -31 -32 -32 -32 -32 -32 -33 -33 -33 -34 -35 -35 -35 -36 -36 -36 -36 -36 -36 -36 -35 -35 -35 -34 -34 -34 -33 -33
-32 -32 -32 -32 -33 -33 -32 -32 -32 -31 -31 -31 -31 -31 -31 -31 -32 -32 -32 -32 -33 -33 -33 -33 -34 -34 -34 -35 -35 -36 -36 -36 -36 -36 -36 -36 -36 -35 -35 -35 -34 -34 -34 -33
-32 -33 -33 -34 -33 -33 -33 -32 -32 -31 -31 -31 -31 -31 -31 -31 -32 -33 -33 -33 -33 -33 -33 -34 -34 -34 -34 -35 -35 -35 -36 -36 -36 -36 -36 -36 -36 -36 -35 -35 -35 -35 -34 -34

GFSNGP_500_temp_006.txt.gz
Temp
-16 -16 -16 -16 -16 -16 -16 -16 -16 -16 -16 -16 -16 -16 -17 -17 -17 -18 -18 -19 -19 -20 -20 -20 -20 -20 -20 -20 -21 -21 -22 -22 -22 -22 -23 -23 -23 -24 -26 -27 -27 -27 -27 -27
-16 -16 -16 -16 -16 -16 -16 -16 -16 -16 -16 -16 -16 -17 -17 -18 -18 -19 -19 -20 -20 -21 -21 -21 -21 -21 -21 -21 -21 -21 -22 -23 -23 -23 -23 -24 -25 -27 -27 -27 -28 -28 -28 -28
-16 -16 -16 -16 -16 -16 -16 -17 -16 -16 -16 -17 -18 -18 -19 -19 -19 -19 -20 -20 -20 -20 -20 -21 -21 -21 -21 -21 -22 -23 -23 -24 -24 -24 -26 -28 -28 -28 -28 -28 -28 -28 -28 -28
-16 -16 -15 -17 -16 -16 -16 -17 -17 -17 -18 -18 -18 -18 -19 -20 -20 -20 -20 -20 -20 -21 -21 -21 -22 -22 -22 -23 -23 -24 -25 -24 -25 -26 -27 -28 -28 -28 -28 -28 -28 -28 -28 -28
-16 -15 -15 -17 -16 -16 -16 -16 -17 -18 -18 -19 -19 -19 -20 -20 -20 -21 -21 -20 -21 -21 -22 -22 -23 -23 -24 -24 -24 -25 -25 -25 -27 -28 -28 -28 -28 -28 -28 -29 -28 -28 -28 -29
-17 -16 -15 -18 -18 -17 -17 -16 -18 -18 -18 -19 -20 -20 -19 -20 -20 -21 -21 -21 -22 -22 -22 -23 -23 -24 -25 -24 -24 -25 -26 -27 -28 -29 -29 -29 -29 -29 -29 -29 -28 -29 -29 -29
-18 -17 -17 -18 -18 -18 -18 -17 -18 -19 -19 -20 -20 -21 -21 -21 -21 -22 -22 -23 -23 -23 -24 -24 -24 -25 -25 -25 -26 -27 -28 -29 -29 -29 -29 -29 -29 -29 -29 -29 -29 -29 -29 -29
-17 -18 -18 -19 -19 -20 -20 -19 -20 -20 -20 -20 -21 -21 -22 -21 -22 -22 -22 -22 -23 -24 -24 -25 -25 -26 -26 -26 -27 -29 -29 -29 -29 -30 -30 -29 -29 -29 -29 -30 -30 -29 -29 -30
-19 -18 -19 -20 -20 -20 -21 -20 -20 -21 -21 -21 -21 -22 -22 -22 -22 -22 -23 -24 -25 -25 -26 -26 -26 -26 -27 -27 -29 -29 -29 -30 -30 -30 -30 -30 -30 -30 -30 -30 -30 -30 -30 -30
-19 -19 -20 -20 -20 -21 -21 -21 -21 -21 -21 -21 -22 -22 -22 -23 -23 -24 -24 -25 -25 -25 -26 -26 -26 -26 -28 -29 -29 -29 -30 -30 -30 -30 -30 -30 -30 -30 -30 -30 -30 -30 -30 -31
-19 -20 -19 -20 -21 -20 -21 -21 -21 -21 -22 -22 -23 -22 -23 -23 -24 -25 -26 -26 -27 -27 -27 -27 -28 -28 -29 -30 -30 -30 -30 -30 -30 -30 -30 -31 -31 -31 -31 -32 -32 -32 -32 -32
-19 -21 -20 -19 -20 -20 -21 -21 -22 -23 -23 -23 -22 -23 -23 -24 -25 -26 -27 -27 -27 -28 -28 -28 -29 -30 -30 -30 -30 -30 -30 -31 -31 -31 -31 -31 -32 -33 -34 -35 -35 -34 -34 -33
-20 -20 -20 -20 -21 -21 -21 -22 -22 -22 -23 -24 -24 -25 -25 -26 -26 -27 -28 -28 -28 -28 -29 -30 -30 -30 -30 -30 -31 -31 -31 -31 -31 -32 -33 -34 -35 -36 -36 -36 -36 -35 -34 -34
-21 -21 -21 -21 -22 -22 -23 -23 -23 -23 -24 -25 -25 -26 -26 -26 -27 -28 -28 -29 -29 -29 -30 -30 -30 -30 -31 -30 -31 -31 -31 -32 -33 -34 -35 -35 -36 -36 -36 -36 -36 -35 -34 -34
-21 -21 -21 -22 -22 -23 -23 -24 -24 -25 -25 -26 -26 -27 -26 -27 -28 -28 -29 -29 -30 -30 -30 -30 -30 -30 -30 -30 -31 -31 -32 -33 -34 -35 -35 -36 -36 -36 -36 -35 -35 -35 -34 -33
-22 -22 -23 -23 -23 -23 -24 -24 -25 -26 -27 -27 -27 -27 -28 -28 -29 -29 -30 -30 -31 -30 -30 -31 -31 -31 -31 -31 -31 -32 -34 -35 -35 -36 -36 -36 -36 -36 -35 -35 -35 -34 -34 -33
-23 -24 -24 -24 -25 -25 -26 -27 -27 -28 -28 -28 -29 -29 -29 -30 -30 -30 -30 -31 -30 -30 -30 -31 -31 -31 -31 -31 -33 -34 -34 -35 -36 -36 -36 -36 -36 -35 -35 -35 -34 -34 -33 -33
-25 -25 -26 -26 -27 -27 -28 -28 -28 -28 -29 -29 -30 -30 -30 -30 -30 -30 -31 -30 -30 -30 -31 -31 -31 -31 -31 -32 -33 -34 -35 -36 -36 -36 -36 -36 -36 -35 -35 -34 -34 -33 -33 -33
-25 -26 -27 -28 -28 -28 -28 -29 -29 -29 -30 -30 -30 -31 -31 -31 -31 -31 -31 -30 -31 -31 -31 -31 -31 -31 -32 -33 -34 -35 -35 -36 -36 -36 -36 -36 -36 -35 -35 -34 -34 -33 -33 -33
-27 -28 -28 -28 -28 -29 -29 -30 -30 -30 -30 -31 -31 -31 -31 -31 -31 -31 -31 -31 -31 -31 -31 -31 -32 -32 -32 -33 -34 -35 -36 -36 -36 -36 -36 -36 -36 -35 -35 -34 -34 -33 -33 -32
-28 -28 -28 -29 -29 -30 -30 -31 -31 -31 -31 -31 -31 -31 -31 -31 -31 -31 -31 -31 -31 -32 -32 -32 -32 -32 -32 -33 -34 -35 -36 -36 -36 -36 -36 -36 -36 -35 -35 -34 -34 -33 -33 -33
-29 -29 -29 -30 -30 -31 -31 -31 -31 -31 -31 -31 -31 -31 -31 -31 -31 -31 -31 -31 -32 -32 -32 -32 -33 -33 -33 -33 -34 -35 -36 -36 -36 -36 -36 -36 -36 -35 -35 -35 -34 -33 -33 -33
-29 -30 -30 -30 -31 -30 -30 -31 -32 -32 -32 -32 -32 -32 -32 -31 -31 -31 -31 -32 -32 -32 -32 -33 -33 -33 -33 -34 -34 -35 -35 -36 -36 -36 -36 -36 -36 -35 -35 -35 -34 -34 -33 -33
-30 -31 -31 -31 -31 -31 -31 -32 -32 -33 -33 -32 -32 -32 -31 -31 -31 -31 -31 -32 -32 -33 -33 -33 -33 -33 -34 -34 -34 -34 -35 -36 -36 -36 -36 -36 -36 -36 -35 -35 -35 -34 -34 -33
-31 -31 -31 -31 -31 -32 -32 -33 -34 -33 -33 -33 -32 -32 -32 -32 -31 -31 -31 -32 -32 -33 -33 -33 -33 -33 -34 -34 -34 -35 -35 -35 -36 -36 -36 -36 -36 -36 -36 -35 -35 -35 -34 -34
-31 -32 -32 -31 -32 -33 -33 -33 -33 -33 -33 -33 -32 -32 -32 -32 -32 -32 -32 -32 -33 -33 -33 -33 -33 -34 -34 -34 -35 -35 -35 -35 -36 -36 -36 -36 -36 -36 -36 -36 -35 -35 -35 -34
-32 -32 -32 -32 -33 -33 -33 -33 -33 -33 -33 -32 -32 -32 -32 -32 -32 -32 -32 -32 -33 -33 -34 -34 -34 -34 -34 -35 -35 -35 -35 -36 -36 -36 -36 -36 -36 -36 -36 -36 -36 -35 -35 -35

GFSNGP_500_temp_009.txt.gz
Temp
-16 -16 -16 -16 -16 -16 -16 -16 -15 -16 -16 -16 -16 -16 -16 -17 -17 -17 -18 -19 -19 -20 -20 -20 -21 -21 -21 -21 -22 -22 -22 -23 -23 -24 -24 -25 -25 -25 -26 -27 -29 -29 -29 -29
-16 -16 -16 -16 -16 -16 -16 -17 -17 -16 -16 -16 -16 -16 -17 -18 -19 -19 -19 -20 -20 -20 -21 -21 -21 -22 -21 -21 -21 -22 -23 -24 -24 -24 -25 -26 -26 -28 -29 -29 -29 -29 -29 -29
-16 -16 -16 -16 -16 -16 -16 -17 -17 -16 -17 -17 -18 -19 -19 -20 -20 -20 -20 -20 -21 -21 -21 -21 -21 -21 -23 -23 -24 -24 -25 -25 -26 -26 -26 -27 -28 -29 -29 -29 -29 -29 -29 -29
-17 -17 -16 -17 -17 -16 -16 -17 -17 -17 -18 -18 -19 -19 -20 -20 -20 -20 -21 -21 -21 -21 -21 -22 -23 -23 -24 -24 -25 -25 -26 -26 -26 -27 -26 -28 -29 -30 -30 -29 -29 -29 -29 -29
-17 -16 -16 -17 -17 -17 -16 -16 -18 -17 -18 -19 -19 -19 -20 -20 -21 -21 -21 -21 -22 -23 -23 -23 -23 -23 -24 -25 -26 -26 -26 -27 -27 -27 -28 -29 -30 -30 -30 -30 -30 -30 -30 -29
-17 -17 -16 -18 -18 -17 -17 -16 -17 -18 -18 -19 -20 -19 -20 -20 -21 -21 -21 -21 -22 -23 -23 -23 -23 -24 -25 -26 -26 -27 -28 -28 -29 -30 -30 -30 -30 -30 -30 -30 -30 -30 -30 -30
-18 -17 -17 -18 -18 -18 -18 -18 -17 -19 -20 -20 -20 -21 -21 -21 -21 -22 -22 -22 -23 -24 -24 -23 -24 -25 -26 -26 -27 -28 -28 -29 -30 -30 -30 -30 -30 -30 -30 -30 -30 -30 -30 -30
-17 -18 -18 -19 -19 -19 -18 -18 -19 -19 -20 -21 -21 -21 -21 -21 -22 -22 -23 -23 -24 -24 -24 -25 -25 -26 -27 -28 -28 -28 -30 -30 -30 -30 -31 -31 -31 -30 -30 -30 -30 -30 -30 -30
-18 -18 -20 -20 -19 -19 -19 -19 -20 -20 -21 -21 -21 -21 -21 -22 -23 -24 -24 -23 -24 -24 -25 -26 -27 -27 -28 -28 -29 -30 -30 -30 -31 -31 -31 -31 -31 -31 -31 -31 -31 -31 -31 -32
-19 -19 -20 -20 -20 -20 -20 -21 -21 -21 -21 -21 -22 -22 -22 -23 -23 -24 -24 -25 -25 -25 -27 -27 -27 -28 -29 -30 -30 -30 -30 -31 -31 -31 -31 -31 -31 -31 -32 -32 -33 -34 -34 -34
-18 -19 -19 -19 -20 -20 -20 -21 -21 -22 -22 -22 -22 -23 -24 -24 -24 -24 -25 -26 -26 -27 -27 -27 -28 -29 -30 -30 -30 -31 -31 -31 -31 -31 -31 -32 -33 -33 -34 -35 -35 -35 -35 -35
-19 -19 -19 -19 -20 -21 -22 -21 -21 -22 -22 -22 -23 -23 -24 -24 -25 -26 -26 -27 -27 -27 -28 -28 -30 -30 -30 -30 -31 -31 -31 -31 -31 -32 -33 -34 -34 -35 -35 -36 -36 -36 -36 -35
-19 -19 -20 -20 -21 -22 -22 -21 -22 -22 -23 -23 -24 -24 -25 -26 -27 -26 -28 -28 -28 -29 -29 -30 -30 -30 -30 -30 -31 -31 -31 -31 -32 -33 -34 -35 -35 -36 -36 -36 -36 -36 -36 -35
-20 -20 -21 -21 -21 -21 -22 -22 -22 -23 -24 -24 -26 -27 -27 -28 -28 -29 -29 -29 -30 -30 -30 -31 -31 -30 -31 -31 -31 -31 -31 -32 -33 -34 -35 -35 -36 -36 -36 -36 -36 -36 -35 -35
-21 -21 -21 -21 -22 -22 -22 -23 -23 -24 -26 -26 -27 -28 -29 -29 -29 -29 -30 -30 -30 -31 -31 -31 -31 -31 -31 -31 -31 -31 -32 -33 -34 -35 -35 -36 -36 -36 -36 -35 -35 -35 -35 -34
-21 -22 -22 -22 -22 -23 -23 -24 -26 -27 -28 -28 -29 -29 -29 -29 -30 -30 -31 -31 -31 -31 -31 -31 -31 -31 -31 -31 -31 -31 -33 -34 -35 -35 -36 -36 -36 -36 -36 -35 -35 -34 -34 -34
-23 -23 -23 -24 -24 -25 -26 -27 -28 -28 -28 -29 -29 -29 -30 -30 -31 -31 -31 -31 -31 -31 -31 -31 -31 -31 -31 -31 -32 -32 -33 -34 -35 -35 -36 -36 -36 -36 -35 -35 -35 -34 -34 -34
-24 -24 -25 -25 -26 -27 -27 -28 -29 -29 -29 -29 -30 -30 -30 -31 -31 -31 -31 -31 -31 -31 -31 -31 -32 -32 -32 -32 -32 -32 -33 -34 -35 -35 -36 -36 -36 -36 -35 -35 -34 -34 -34 -33
-24 -24 -25 -26 -27 -28 -28 -29 -29 -29 -30 -30 -30 -30 -31 -31 -31 -31 -31 -31 -31 -31 -31 -32 -32 -32 -32 -32 -33 -33 -33 -34 -35 -35 -36 -36 -36 -36 -35 -35 -34 -34 -34 -33
-25 -26 -27 -28 -28 -29 -29 -29 -30 -30 -30 -31 -31 -31 -31 -31 -32 -32 -31 -31 -31 -31 -31 -32 -32 -32 -33 -33 -33 -33 -34 -34 -35 -35 -36 -36 -36 -35 -35 -35 -35 -34 -34 -33
-28 -28 -28 -29 -29 -29 -30 -30 -30 -30 -31 -31 -31 -31 -32 -32 -32 -32 -32 -31 -31 -31 -32 -32 -32 -33 -33 -33 -33 -34 -34 -34 -35 -35 -36 -36 -36 -36 -35 -35 -35 -34 -34 -33
-29 -29 -29 -29 -29 -29 -30 -30 -31 -31 -31 -31 -32 -32 -32 -33 -33 -32 -32 -31 -32 -32 -32 -33 -33 -33 -33 -33 -33 -34 -34 -34 -35 -35 -36 -36 -36 -36 -36 -35 -35 -35 -34 -33
-29 -29 -29 -30 -30 -30 -30 -31 -31 -32 -32 -33 -33 -33 -33 -33 -33 -32 -32 -32 -32 -32 -32 -33 -33 -33 -33 -33 -34 -34 -34 -35 -35 -35 -35 -36 -36 -36 -36 -36 -35 -35 -34 -34
-30 -30 -30 -31 -31 -31 -31 -31 -32 -33 -33 -33 -33 -33 -33 -33 -32 -32 -32 -32 -32 -32 -32 -33 -33 -34 -34 -34 -34 -34 -35 -35 -35 -35 -35 -36 -36 -36 -36 -36 -36 -35 -35 -34
-31 -31 -31 -31 -32 -32 -32 -32 -32 -33 -33 -33 -33 -33 -33 -33 -32 -32 -32 -32 -32 -32 -32 -33 -33 -34 -34 -34 -34 -34 -35 -35 -35 -36 -36 -36 -36 -36 -36 -36 -36 -36 -35 -35
-31 -31 -32 -32 -32 -32 -32 -32 -32 -33 -33 -33 -33 -33 -33 -32 -32 -32 -32 -32 -32 -32 -33 -33 -33 -34 -34 -34 -34 -35 -35 -35 -35 -36 -36 -36 -36 -36 -36 -36 -36 -36 -36 -36
-32 -32 -33 -33 -33 -33 -33 -32 -32 -32 -33 -33 -33 -33 -33 -32 -32 -33 -33 -33 -32 -33 -33 -33 -33 -34 -34 -34 -34 -35 -35 -35 -36 -36 -36 -36 -36 -36 -37 -36 -36 -36 -36 -36

GFSNGP_500_temp_015.txt.gz
Temp
-16 -16 -16 -16 -17 -17 -17 -17 -16 -16 -16 -16 -16 -16 -17 -17 -17 -17 -17 -17 -17 -17 -17 -18 -19 -20 -20 -21 -22 -23 -23 -24 -24 -25 -25 -25 -25 -26 -27 -27 -29 -30 -30 -31
-16 -16 -16 -16 -17 -17 -17 -17 -16 -16 -17 -17 -17 -17 -17 -17 -17 -17 -17 -17 -18 -18 -19 -20 -20 -21 -22 -22 -22 -24 -25 -25 -25 -25 -26 -25 -26 -28 -29 -30 -30 -31 -31 -31
-16 -16 -16 -16 -16 -17 -17 -18 -17 -17 -17 -17 -17 -17 -17 -17 -17 -17 -18 -18 -18 -19 -20 -21 -22 -22 -23 -23 -24 -25 -25 -25 -25 -26 -26 -27 -28 -30 -31 -31 -31 -31 -31 -31
-16 -16 -16 -17 -17 -16 -17 -17 -17 -17 -17 -17 -18 -18 -18 -18 -18 -18 -19 -19 -20 -21 -22 -23 -23 -23 -23 -24 -25 -26 -26 -26 -26 -27 -28 -29 -30 -31 -31 -31 -31 -31 -31 -31
-16 -16 -16 -18 -17 -17 -17 -17 -17 -17 -17 -18 -18 -18 -19 -19 -19 -19 -20 -21 -22 -22 -23 -23 -24 -24 -24 -25 -26 -26 -26 -27 -28 -29 -30 -31 -31 -31 -31 -31 -31 -31 -31 -31
-17 -17 -17 -18 -18 -18 -17 -17 -17 -17 -18 -18 -18 -18 -18 -19 -20 -20 -21 -22 -22 -23 -22 -24 -24 -25 -26 -26 -27 -27 -27 -29 -30 -30 -31 -31 -31 -31 -31 -31 -31 -31 -32 -32
-17 -17 -17 -18 -18 -17 -17 -17 -17 -17 -18 -18 -18 -19 -19 -20 -21 -22 -23 -22 -22 -22 -23 -24 -26 -27 -27 -27 -28 -28 -30 -30 -31 -31 -31 -31 -31 -31 -31 -31 -32 -33 -33 -34
-17 -18 -18 -18 -17 -18 -18 -18 -18 -19 -19 -19 -20 -20 -20 -22 -22 -23 -23 -24 -24 -24 -25 -27 -28 -28 -28 -29 -29 -30 -30 -31 -31 -31 -31 -31 -31 -31 -32 -32 -33 -34 -35 -35
-18 -18 -18 -18 -18 -18 -19 -19 -19 -19 -20 -20 -21 -21 -22 -23 -23 -24 -24 -25 -25 -26 -27 -28 -28 -29 -29 -29 -30 -30 -31 -31 -31 -31 -31 -31 -31 -32 -33 -33 -34 -35 -35 -35
-18 -18 -18 -19 -19 -19 -20 -20 -20 -20 -21 -21 -22 -23 -23 -23 -24 -24 -25 -25 -27 -28 -28 -28 -29 -29 -30 -30 -30 -31 -31 -31 -31 -31 -31 -32 -32 -32 -33 -34 -35 -35 -36 -36
-18 -19 -18 -20 -20 -20 -20 -20 -20 -21 -22 -22 -22 -23 -23 -24 -24 -25 -25 -26 -27 -28 -29 -29 -30 -30 -30 -30 -31 -31 -31 -31 -31 -32 -32 -32 -32 -33 -34 -35 -35 -36 -35 -35
-18 -19 -18 -19 -19 -20 -21 -21 -21 -21 -22 -23 -23 -24 -24 -24 -25 -26 -26 -27 -28 -29 -29 -30 -30 -30 -31 -31 -31 -31 -31 -32 -32 -32 -32 -32 -33 -34 -35 -35 -36 -35 -35 -35
-19 -19 -19 -20 -20 -20 -20 -20 -21 -23 -23 -23 -24 -24 -24 -25 -26 -27 -28 -29 -29 -29 -30 -30 -31 -31 -31 -31 -32 -31 -32 -32 -32 -32 -32 -33 -34 -35 -35 -36 -36 -35 -35 -35
-20 -20 -20 -20 -20 -21 -21 -22 -23 -23 -24 -24 -25 -25 -26 -27 -28 -28 -29 -29 -30 -30 -30 -31 -31 -31 -32 -32 -32 -32 -32 -32 -32 -32 -33 -33 -34 -35 -35 -35 -35 -35 -35 -34
-20 -20 -20 -21 -21 -22 -23 -23 -24 -24 -25 -25 -26 -27 -28 -28 -29 -29 -30 -30 -30 -30 -30 -31 -31 -32 -32 -32 -32 -32 -33 -33 -33 -33 -33 -33 -34 -35 -35 -35 -35 -35 -35 -34
-20 -20 -21 -22 -23 -24 -24 -24 -25 -25 -26 -26 -27 -28 -29 -29 -29 -30 -30 -30 -30 -31 -31 -31 -32 -32 -32 -32 -32 -33 -33 -33 -33 -33 -33 -34 -34 -35 -35 -35 -35 -35 -35 -34
-21 -22 -23 -24 -24 -24 -25 -25 -26 -26 -26 -28 -28 -29 -29 -30 -30 -30 -30 -31 -32 -32 -32 -33 -33 -33 -32 -32 -33 -33 -33 -33 -33 -33 -33 -34 -34 -35 -35 -35 -35 -35 -35 -34
-23 -23 -23 -24 -24 -25 -25 -25 -26 -27 -28 -29 -29 -29 -30 -30 -30 -31 -31 -32 -33 -33 -33 -33 -33 -32 -32 -32 -33 -33 -33 -33 -33 -33 -34 -34 -34 -35 -35 -36 -35 -35 -35 -34
-24 -24 -24 -25 -25 -25 -26 -27 -28 -28 -29 -29 -30 -30 -30 -31 -31 -32 -32 -33 -33 -34 -33 -33 -32 -32 -32 -33 -33 -33 -33 -33 -34 -34 -34 -34 -34 -35 -35 -35 -35 -35 -35 -35
-24 -25 -25 -25 -26 -27 -27 -28 -29 -29 -30 -30 -30 -30 -31 -32 -32 -33 -33 -33 -33 -33 -33 -33 -32 -32 -33 -33 -33 -34 -33 -33 -34 -34 -34 -34 -35 -35 -35 -35 -36 -35 -35 -35
-25 -26 -26 -27 -27 -28 -29 -29 -29 -30 -30 -31 -30 -31 -31 -32 -32 -33 -33 -33 -33 -33 -33 -32 -32 -32 -33 -33 -33 -34 -33 -34 -34 -34 -34 -34 -35 -35 -35 -36 -36 -36 -36 -35
-26 -27 -28 -28 -29 -29 -30 -30 -30 -30 -31 -31 -32 -32 -32 -32 -32 -32 -33 -33 -33 -33 -32 -32 -32 -32 -33 -33 -33 -33 -34 -34 -34 -34 -34 -35 -35 -35 -35 -35 -36 -36 -36 -36
-28 -29 -29 -30 -30 -30 -30 -31 -31 -31 -32 -32 -32 -33 -33 -32 -32 -33 -33 -33 -33 -33 -32 -32 -33 -33 -33 -33 -33 -33 -34 -34 -34 -34 -35 -35 -35 -35 -35 -36 -36 -36 -36 -36
-30 -30 -30 -31 -31 -31 -31 -32 -32 -32 -32 -33 -33 -33 -32 -32 -33 -33 -33 -33 -33 -33 -33 -33 -33 -33 -33 -33 -33 -34 -34 -34 -34 -34 -35 -35 -35 -35 -36 -36 -36 -36 -36 -36
-30 -31 -31 -31 -32 -32 -33 -32 -32 -32 -33 -34 -33 -33 -32 -32 -33 -33 -33 -33 -33 -33 -33 -33 -33 -33 -33 -33 -34 -34 -34 -34 -35 -35 -35 -35 -36 -36 -36 -36 -36 -36 -36 -37
-31 -31 -32 -32 -33 -33 -33 -33 -33 -33 -33 -34 -34 -33 -33 -33 -33 -33 -33 -33 -33 -33 -33 -33 -33 -33 -34 -34 -34 -34 -35 -35 -35 -35 -36 -36 -36 -36 -36 -36 -36 -36 -37 -37
-32 -32 -32 -33 -33 -33 -33 -33 -33 -33 -33 -34 -34 -34 -34 -34 -33 -33 -34 -34 -34 -34 -34 -34 -34 -34 -34 -34 -35 -35 -35 -35 -35 -36 -36 -36 -36 -36 -36 -36 -36 -37 -37 -37

GFSNGP_500_temp_018.txt.gz
Temp
-16 -16 -16 -16 -16 -16 -17 -17 -16 -17 -17 -17 -17 -17 -17 -17 -17 -17 -17 -17 -17 -18 -18 -18 -19 -19 -20 -21 -22 -22 -23 -22 -24 -24 -25 -25 -26 -26 -28 -29 -30 -31 -31 -31
-16 -16 -16 -16 -16 -17 -17 -17 -17 -17 -17 -17 -17 -17 -17 -17 -17 -17 -17 -17 -18 -18 -18 -18 -20 -20 -22 -23 -23 -22 -23 -24 -24 -25 -26 -26 -27 -29 -29 -30 -31 -31 -31 -31
-16 -16 -16 -16 -16 -16 -17 -17 -17 -17 -17 -17 -17 -17 -17 -17 -18 -18 -18 -18 -18 -18 -19 -20 -21 -23 -23 -23 -23 -24 -24 -25 -26 -26 -27 -28 -29 -30 -30 -31 -31 -31 -31 -31
-16 -16 -16 -17 -16 -17 -17 -17 -17 -17 -17 -17 -17 -18 -18 -17 -17 -18 -18 -19 -19 -20 -22 -22 -23 -23 -23 -24 -24 -25 -26 -27 -27 -28 -29 -30 -30 -31 -31 -31 -31 -31 -31 -31
-16 -16 -16 -17 -17 -17 -17 -17 -17 -18 -18 -18 -18 -18 -18 -18 -19 -19 -19 -20 -21 -22 -23 -23 -24 -24 -24 -25 -26 -27 -28 -28 -29 -29 -30 -31 -31 -31 -31 -31 -31 -31 -31 -32
-16 -16 -16 -17 -17 -17 -17 -17 -17 -18 -18 -18 -18 -17 -18 -19 -19 -20 -21 -22 -22 -23 -23 -24 -24 -25 -26 -27 -28 -28 -29 -29 -30 -30 -30 -31 -31 -31 -31 -31 -31 -31 -32 -33
-17 -17 -17 -17 -17 -17 -17 -17 -18 -18 -18 -18 -18 -19 -19 -19 -20 -21 -22 -23 -23 -23 -24 -25 -25 -26 -27 -28 -29 -29 -30 -30 -30 -30 -31 -31 -31 -31 -31 -31 -32 -32 -33 -34
-17 -18 -17 -17 -17 -17 -17 -18 -18 -18 -18 -19 -19 -19 -19 -20 -22 -23 -23 -23 -24 -24 -25 -26 -27 -27 -28 -29 -29 -30 -30 -30 -31 -31 -31 -31 -31 -31 -32 -32 -32 -33 -34 -35
-17 -18 -18 -18 -17 -18 -18 -18 -18 -19 -19 -19 -19 -19 -21 -22 -23 -23 -24 -24 -25 -25 -26 -27 -28 -29 -29 -29 -30 -30 -31 -31 -31 -31 -31 -32 -32 -32 -32 -32 -33 -34 -35 -35
-18 -18 -18 -18 -18 -19 -19 -19 -19 -19 -19 -19 -20 -22 -22 -23 -23 -23 -24 -25 -25 -26 -27 -28 -29 -29 -29 -30 -30 -31 -31 -31 -32 -32 -32 -32 -32 -32 -32 -33 -34 -34 -35 -35
-18 -18 -18 -18 -18 -19 -19 -19 -19 -20 -20 -21 -21 -22 -23 -23 -24 -24 -24 -25 -26 -27 -28 -29 -29 -30 -30 -31 -31 -31 -32 -32 -32 -32 -32 -32 -32 -32 -33 -33 -34 -35 -34 -35
-18 -18 -18 -18 -18 -19 -19 -19 -20 -20 -20 -21 -22 -23 -23 -24 -24 -25 -26 -26 -27 -28 -29 -29 -30 -30 -31 -31 -31 -32 -32 -32 -32 -32 -32 -32 -33 -33 -33 -34 -35 -35 -34 -34
-18 -18 -18 -19 -19 -19 -19 -20 -20 -21 -22 -22 -23 -24 -24 -24 -25 -26 -27 -28 -29 -30 -30 -30 -30 -31 -31 -31 -32 -32 -33 -32 -33 -33 -33 -33 -33 -33 -34 -35 -35 -35 -34 -34
-19 -19 -19 -19 -19 -19 -20 -20 -21 -22 -23 -23 -24 -25 -25 -26 -27 -28 -29 -29 -30 -30 -30 -31 -31 -32 -32 -32 -33 -33 -32 -33 -33 -33 -33 -33 -33 -33 -34 -35 -35 -35 -35 -34
-19 -19 -19 -20 -20 -20 -21 -22 -22 -23 -23 -24 -25 -25 -26 -27 -28 -29 -30 -30 -30 -30 -31 -31 -32 -32 -33 -33 -33 -32 -33 -33 -33 -33 -33 -33 -33 -34 -34 -35 -35 -35 -35 -34
-19 -20 -20 -21 -21 -22 -22 -23 -23 -24 -24 -25 -25 -26 -27 -28 -29 -30 -30 -30 -30 -31 -32 -32 -33 -33 -33 -33 -33 -32 -33 -33 -33 -33 -33 -33 -34 -34 -34 -35 -35 -35 -35 -35
-20 -21 -21 -22 -23 -23 -24 -24 -24 -24 -25 -25 -27 -27 -28 -29 -30 -30 -30 -31 -32 -32 -32 -33 -33 -33 -33 -32 -32 -32 -33 -33 -33 -33 -33 -34 -34 -34 -34 -35 -35 -35 -35 -35
-21 -22 -22 -23 -23 -23 -24 -24 -24 -25 -26 -27 -28 -28 -29 -30 -30 -31 -31 -32 -32 -33 -33 -33 -33 -33 -33 -32 -32 -33 -33 -33 -33 -34 -34 -34 -34 -34 -34 -35 -35 -35 -35 -35
-22 -22 -23 -24 -24 -24 -25 -25 -26 -26 -27 -28 -29 -30 -30 -31 -31 -32 -32 -32 -32 -33 -33 -33 -33 -33 -32 -32 -32 -33 -33 -33 -34 -34 -34 -34 -34 -34 -35 -35 -35 -35 -35 -35
-23 -24 -24 -24 -25 -25 -26 -27 -27 -28 -29 -29 -30 -30 -31 -32 -32 -32 -32 -32 -32 -33 -33 -33 -33 -33 -32 -32 -32 -33 -33 -33 -34 -34 -34 -34 -34 -35 -35 -35 -35 -35 -35 -35
-24 -24 -25 -25 -25 -27 -28 -28 -28 -29 -30 -30 -31 -31 -32 -32 -32 -32 -32 -32 -32 -33 -33 -33 -33 -33 -32 -32 -32 -33 -33 -33 -34 -34 -34 -34 -34 -35 -35 -35 -35 -35 -35 -35
-25 -25 -26 -26 -27 -28 -29 -29 -30 -30 -31 -31 -32 -32 -32 -33 -33 -32 -32 -32 -33 -33 -33 -33 -33 -33 -33 -33 -33 -33 -33 -33 -34 -34 -34 -34 -35 -35 -35 -35 -35 -35 -35 -36
-26 -26 -27 -28 -28 -29 -30 -30 -31 -31 -32 -32 -32 -32 -32 -33 -32 -32 -32 -33 -33 -33 -33 -33 -33 -33 -33 -33 -33 -33 -33 -34 -34 -34 -34 -35 -35 -35 -35 -36 -36 -35 -35 -36
-27 -28 -29 -29 -30 -30 -31 -31 -32 -32 -33 -33 -33 -33 -33 -33 -33 -33 -33 -33 -33 -33 -33 -33 -33 -33 -33 -33 -33 -34 -34 -34 -34 -35 -35 -35 -35 -36 -36 -36 -36 -36 -36 -36
-29 -30 -30 -30 -30 -31 -32 -32 -32 -33 -33 -33 -33 -33 -33 -33 -34 -34 -33 -33 -33 -33 -33 -33 -33 -33 -33 -34 -34 -34 -34 -35 -35 -35 -35 -35 -35 -36 -36 -36 -36 -36 -36 -36
-30 -30 -30 -31 -31 -32 -32 -33 -33 -33 -33 -33 -33 -33 -33 -33 -33 -34 -34 -34 -34 -34 -34 -34 -34 -34 -34 -34 -34 -34 -35 -35 -35 -35 -35 -35 -36 -36 -36 -36 -37 -37 -37 -37
-31 -31 -31 -31 -32 -32 -33 -33 -33 -33 -33 -33 -33 -33 -33 -33 -33 -33 -34 -34 -34 -34 -34 -34 -34 -34 -34 -34 -35 -35 -35 -35 -35 -35 -36 -36 -36 -36 -37 -37 -37 -37 -37 -37

GFSNGP_500_temp_021.txt.gz
Temp
-15 -16 -15 -16 -16 -16 -16 -16 -16 -17 -17 -18 -17 -17 -17 -17 -18 -17 -18 -17 -17 -17 -17 -18 -18 -19 -19 -20 -21 -22 -23 -24 -24 -25 -25 -26 -26 -27 -28 -29 -30 -30 -31 -31
-16 -16 -15 -15 -16 -16 -16 -16 -16 -17 -17 -17 -18 -17 -17 -17 -17 -17 -17 -17 -17 -17 -17 -18 -18 -19 -21 -22 -23 -23 -24 -24 -25 -25 -27 -27 -28 -29 -29 -30 -31 -31 -31 -31
-15 -15 -15 -15 -16 -16 -16 -16 -16 -17 -17 -17 -17 -17 -17 -17 -17 -17 -17 -17 -17 -18 -18 -19 -21 -22 -23 -23 -24 -24 -24 -25 -26 -27 -28 -29 -29 -29 -30 -30 -31 -31 -31 -31
-15 -15 -15 -15 -16 -16 -16 -17 -17 -17 -17 -18 -17 -17 -17 -18 -18 -17 -17 -18 -18 -18 -20 -21 -22 -23 -23 -23 -24 -25 -26 -26 -28 -28 -29 -29 -30 -30 -30 -31 -31 -31 -31 -31
-16 -16 -15 -16 -16 -16 -17 -17 -17 -18 -18 -18 -17 -18 -18 -17 -18 -18 -18 -18 -19 -20 -21 -22 -23 -23 -23 -24 -25 -26 -27 -28 -29 -29 -30 -30 -31 -31 -31 -31 -31 -31 -31 -32
-16 -16 -16 -17 -16 -17 -17 -17 -17 -17 -17 -17 -17 -17 -18 -18 -18 -18 -19 -19 -20 -21 -22 -23 -23 -24 -25 -25 -27 -28 -29 -29 -29 -30 -30 -31 -31 -31 -31 -31 -32 -32 -32 -32
-16 -16 -16 -17 -17 -17 -17 -17 -17 -17 -17 -17 -18 -18 -18 -18 -18 -18 -19 -20 -21 -22 -22 -23 -24 -25 -26 -27 -28 -29 -30 -30 -30 -31 -31 -31 -31 -32 -32 -32 -32 -32 -32 -33
-16 -17 -17 -17 -17 -17 -17 -18 -18 -18 -18 -18 -18 -18 -18 -18 -19 -20 -21 -22 -22 -23 -23 -24 -25 -26 -28 -28 -29 -30 -30 -31 -31 -32 -32 -32 -32 -32 -32 -32 -32 -32 -33 -34
-17 -17 -18 -18 -18 -18 -18 -18 -18 -18 -18 -18 -18 -18 -19 -19 -21 -21 -22 -23 -23 -24 -24 -25 -26 -27 -29 -29 -30 -30 -31 -31 -32 -32 -33 -33 -32 -33 -32 -32 -32 -33 -33 -34
-17 -18 -18 -18 -18 -18 -18 -18 -18 -18 -18 -18 -19 -19 -20 -20 -21 -22 -23 -23 -23 -24 -25 -26 -27 -29 -29 -30 -30 -31 -31 -32 -32 -33 -33 -33 -33 -32 -32 -33 -33 -33 -34 -34
-17 -18 -18 -18 -18 -18 -18 -18 -18 -19 -19 -19 -19 -20 -20 -21 -22 -23 -23 -24 -24 -26 -27 -28 -29 -29 -30 -30 -31 -32 -32 -32 -33 -33 -32 -33 -33 -33 -33 -33 -33 -34 -34 -34
-18 -18 -18 -18 -19 -19 -19 -19 -19 -19 -19 -20 -20 -21 -22 -22 -23 -23 -24 -25 -25 -27 -28 -29 -30 -30 -31 -32 -32 -32 -33 -33 -33 -32 -33 -33 -33 -33 -33 -33 -34 -34 -34 -35
-19 -19 -19 -19 -19 -19 -19 -19 -19 -20 -20 -20 -21 -22 -22 -23 -23 -24 -25 -26 -27 -29 -30 -30 -30 -31 -32 -32 -33 -33 -33 -33 -32 -33 -33 -33 -33 -33 -33 -33 -34 -34 -34 -35
-19 -19 -19 -19 -19 -19 -19 -20 -20 -20 -21 -22 -22 -23 -23 -24 -24 -26 -27 -28 -29 -30 -30 -31 -31 -32 -32 -33 -33 -33 -33 -33 -33 -33 -33 -33 -33 -33 -33 -34 -34 -34 -34 -35
-19 -19 -19 -19 -19 -20 -20 -20 -20 -21 -22 -22 -23 -24 -24 -25 -26 -27 -28 -29 -30 -30 -31 -32 -32 -32 -33 -33 -33 -33 -32 -32 -33 -33 -33 -33 -33 -33 -34 -34 -34 -34 -35 -35
-19 -20 -20 -20 -20 -20 -21 -21 -22 -22 -23 -23 -24 -24 -25 -27 -28 -28 -29 -30 -31 -31 -31 -32 -32 -33 -33 -33 -33 -32 -32 -32 -33 -33 -33 -33 -33 -34 -34 -34 -34 -35 -35 -35
-20 -20 -20 -21 -21 -21 -22 -23 -23 -23 -24 -24 -24 -25 -27 -28 -28 -29 -30 -31 -31 -31 -32 -32 -32 -33 -33 -32 -32 -32 -32 -32 -33 -33 -33 -33 -34 -34 -34 -34 -34 -35 -35 -35
-21 -21 -21 -21 -22 -22 -23 -23 -23 -24 -24 -25 -25 -26 -28 -29 -29 -30 -31 -31 -31 -32 -32 -32 -32 -33 -33 -32 -32 -32 -32 -32 -33 -33 -33 -34 -34 -34 -34 -34 -35 -35 -35 -35
-21 -21 -22 -22 -23 -23 -23 -24 -24 -24 -25 -26 -27 -28 -29 -30 -30 -31 -31 -32 -32 -32 -32 -32 -33 -33 -33 -32 -32 -32 -32 -33 -33 -33 -33 -34 -34 -34 -34 -34 -35 -35 -35 -35
-22 -22 -22 -23 -24 -24 -24 -24 -25 -26 -27 -28 -29 -29 -30 -31 -31 -31 -32 -32 -32 -32 -32 -33 -33 -33 -33 -32 -33 -33 -33 -33 -33 -33 -34 -34 -34 -34 -34 -35 -35 -35 -35 -35
-22 -23 -24 -24 -24 -24 -25 -26 -26 -27 -29 -29 -30 -30 -30 -31 -32 -32 -32 -32 -32 -32 -33 -33 -33 -33 -33 -33 -33 -33 -33 -33 -33 -34 -34 -34 -34 -34 -35 -35 -35 -35 -35 -35
-23 -24 -24 -24 -25 -25 -26 -27 -28 -29 -29 -30 -30 -31 -31 -32 -32 -32 -32 -33 -33 -32 -33 -33 -33 -33 -33 -33 -33 -33 -33 -33 -34 -34 -34 -34 -35 -35 -35 -35 -36 -36 -36 -36
-25 -25 -25 -25 -26 -27 -28 -29 -29 -30 -30 -31 -31 -32 -32 -32 -32 -32 -32 -33 -33 -33 -33 -33 -33 -33 -33 -33 -33 -33 -33 -34 -34 -34 -35 -35 -35 -35 -35 -36 -36 -36 -36 -36
-25 -26 -26 -27 -28 -29 -29 -29 -30 -30 -31 -31 -32 -32 -33 -32 -33 -33 -33 -33 -33 -33 -33 -33 -33 -34 -34 -34 -34 -34 -34 -34 -34 -35 -35 -35 -35 -35 -36 -36 -36 -36 -36 -36
-27 -28 -28 -29 -29 -30 -30 -30 -31 -31 -31 -32 -32 -33 -33 -33 -33 -33 -33 -33 -33 -33 -34 -34 -34 -34 -34 -34 -34 -34 -34 -34 -35 -35 -35 -35 -35 -36 -36 -36 -36 -36 -36 -37
-29 -30 -30 -30 -30 -30 -31 -31 -32 -32 -32 -33 -33 -33 -33 -33 -33 -33 -33 -33 -33 -34 -34 -34 -34 -34 -34 -34 -34 -34 -34 -35 -35 -35 -35 -35 -36 -36 -36 -36 -36 -37 -37 -37
-30 -30 -31 -31 -31 -31 -31 -32 -33 -33 -33 -33 -33 -33 -33 -33 -33 -34 -33 -33 -33 -34 -34 -34 -34 -34 -34 -34 -34 -35 -35 -35 -35 -35 -35 -36 -36 -36 -36 -36 -36 -37 -37 -37

GFSNGP_500_temp_024.txt.gz
Temp
-15 -15 -15 -15 -15 -15 -16 -16 -16 -16 -16 -17 -17 -18 -17 -17 -17 -17 -17 -17 -17 -17 -17 -17 -17 -18 -19 -19 -20 -21 -22 -23 -23 -23 -24 -26 -26 -27 -28 -29 -29 -30 -30 -30
-15 -15 -15 -15 -15 -15 -15 -16 -16 -17 -17 -17 -17 -16 -17 -17 -17 -17 -17 -17 -17 -17 -17 -18 -18 -18 -19 -20 -21 -22 -22 -23 -23 -24 -24 -27 -28 -29 -30 -30 -30 -31 -31 -31
-15 -15 -15 -15 -15 -15 -15 -16 -16 -16 -17 -17 -17 -17 -17 -17 -17 -17 -17 -18 -17 -17 -18 -18 -18 -19 -21 -21 -22 -23 -23 -24 -25 -25 -27 -29 -29 -30 -30 -31 -31 -31 -32 -32
-15 -15 -15 -15 -15 -15 -16 -16 -16 -17 -17 -17 -17 -17 -18 -17 -18 -17 -17 -17 -17 -18 -18 -18 -20 -20 -21 -22 -23 -24 -24 -25 -27 -29 -29 -30 -30 -30 -31 -32 -32 -32 -32 -32
-15 -15 -15 -16 -15 -16 -16 -16 -16 -17 -17 -17 -17 -18 -18 -17 -17 -17 -17 -18 -18 -19 -19 -20 -20 -20 -22 -23 -24 -25 -26 -28 -30 -31 -32 -31 -32 -32 -32 -32 -33 -32 -33 -32
-15 -15 -16 -16 -16 -16 -16 -16 -16 -17 -17 -17 -17 -17 -17 -17 -18 -18 -18 -19 -19 -19 -19 -20 -22 -23 -23 -24 -25 -27 -28 -29 -30 -31 -31 -32 -33 -33 -33 -33 -33 -33 -33 -33
-15 -16 -16 -16 -16 -16 -16 -17 -17 -18 -17 -18 -18 -18 -17 -18 -18 -18 -18 -19 -19 -20 -21 -22 -23 -23 -24 -25 -26 -28 -29 -30 -31 -31 -33 -33 -33 -34 -33 -33 -33 -33 -33 -33
-16 -17 -16 -16 -16 -16 -17 -18 -18 -18 -18 -18 -18 -18 -18 -18 -18 -19 -19 -19 -20 -21 -22 -23 -23 -24 -24 -26 -28 -29 -30 -30 -31 -32 -32 -32 -33 -33 -33 -33 -33 -33 -33 -33
-16 -17 -17 -17 -16 -17 -17 -18 -18 -18 -18 -18 -18 -18 -18 -19 -19 -19 -20 -20 -21 -22 -23 -23 -24 -25 -25 -27 -29 -30 -30 -31 -31 -32 -33 -33 -33 -33 -33 -33 -33 -33 -33 -33
-17 -17 -18 -17 -17 -18 -18 -19 -19 -18 -19 -19 -18 -19 -19 -19 -20 -20 -21 -22 -22 -22 -23 -24 -25 -27 -29 -30 -30 -31 -31 -32 -32 -33 -33 -33 -33 -33 -33 -33 -33 -33 -33 -34
-17 -18 -18 -17 -18 -18 -19 -19 -19 -19 -19 -19 -19 -19 -20 -20 -21 -21 -22 -22 -22 -23 -24 -25 -27 -29 -30 -31 -31 -32 -32 -32 -33 -33 -33 -33 -33 -33 -33 -33 -33 -33 -34 -34
-18 -18 -18 -18 -19 -19 -19 -19 -19 -19 -19 -19 -20 -20 -21 -21 -22 -22 -22 -23 -23 -24 -25 -26 -28 -30 -31 -31 -32 -32 -32 -33 -33 -33 -32 -33 -33 -33 -33 -33 -33 -34 -34 -34
-18 -18 -18 -18 -19 -19 -19 -19 -19 -20 -20 -20 -21 -21 -21 -22 -22 -23 -23 -24 -24 -25 -26 -28 -29 -31 -31 -32 -32 -33 -33 -33 -32 -32 -33 -33 -33 -33 -33 -33 -33 -34 -34 -34
-18 -18 -19 -19 -19 -19 -20 -20 -20 -20 -20 -21 -21 -22 -22 -23 -23 -23 -24 -24 -25 -27 -28 -29 -30 -31 -31 -32 -32 -33 -32 -32 -32 -32 -33 -33 -33 -33 -33 -33 -33 -33 -34 -34
-19 -19 -19 -20 -20 -20 -20 -20 -20 -21 -21 -21 -22 -22 -23 -23 -24 -24 -25 -26 -27 -28 -29 -30 -30 -31 -31 -32 -32 -32 -32 -32 -32 -32 -33 -33 -33 -33 -33 -34 -34 -34 -34 -34
-19 -20 -20 -20 -20 -20 -21 -21 -21 -21 -22 -22 -23 -23 -23 -24 -25 -25 -26 -27 -29 -29 -30 -30 -31 -31 -31 -32 -32 -32 -32 -32 -32 -32 -33 -33 -33 -33 -34 -34 -34 -34 -34 -34
-20 -20 -20 -20 -20 -21 -21 -21 -22 -22 -23 -23 -23 -24 -24 -25 -25 -27 -28 -29 -30 -30 -31 -31 -31 -31 -32 -32 -32 -32 -32 -32 -32 -33 -33 -33 -33 -34 -34 -34 -34 -34 -34 -35
-20 -20 -20 -20 -21 -21 -22 -23 -23 -23 -23 -24 -24 -25 -25 -26 -26 -28 -29 -30 -30 -31 -31 -31 -31 -32 -32 -32 -33 -32 -32 -32 -32 -33 -33 -33 -34 -34 -34 -34 -34 -35 -35 -35
-20 -20 -21 -21 -22 -22 -23 -23 -24 -24 -24 -24 -25 -26 -26 -27 -28 -29 -30 -31 -31 -31 -31 -32 -32 -32 -32 -33 -33 -33 -32 -33 -33 -33 -33 -34 -34 -34 -34 -34 -35 -35 -35 -35
-21 -21 -22 -22 -23 -23 -24 -24 -24 -25 -25 -26 -26 -27 -27 -29 -30 -30 -31 -31 -32 -32 -32 -32 -32 -32 -33 -33 -33 -33 -33 -33 -33 -33 -33 -34 -34 -34 -35 -35 -35 -35 -35 -35
-22 -22 -23 -23 -24 -24 -25 -25 -25 -26 -26 -27 -27 -28 -29 -30 -31 -31 -31 -31 -32 -32 -32 -32 -33 -33 -33 -33 -33 -33 -33 -33 -33 -33 -34 -34 -34 -35 -35 -35 -35 -35 -36 -36
-23 -23 -24 -24 -25 -25 -25 -26 -26 -27 -28 -28 -29 -30 -30 -31 -31 -31 -32 -32 -32 -32 -32 -32 -33 -33 -33 -33 -33 -33 -33 -33 -34 -34 -34 -34 -35 -35 -35 -35 -35 -36 -36 -36
-24 -24 -25 -25 -25 -26 -26 -27 -27 -28 -29 -29 -30 -31 -31 -32 -32 -32 -32 -33 -33 -33 -33 -33 -33 -33 -33 -33 -34 -34 -34 -34 -34 -34 -34 -35 -35 -35 -35 -35 -36 -36 -36 -36
-25 -26 -26 -26 -27 -27 -28 -28 -29 -29 -30 -30 -31 -32 -32 -32 -32 -33 -33 -33 -33 -33 -33 -33 -33 -33 -33 -34 -34 -34 -34 -34 -34 -34 -35 -35 -35 -35 -35 -36 -36 -36 -36 -36
-26 -26 -27 -28 -28 -29 -30 -30 -30 -31 -31 -31 -32 -33 -33 -33 -33 -33 -33 -33 -33 -33 -33 -33 -33 -33 -33 -34 -34 -34 -34 -34 -34 -35 -35 -35 -35 -35 -35 -36 -36 -36 -36 -36
-28 -28 -29 -30 -30 -31 -31 -31 -31 -31 -32 -33 -33 -34 -34 -34 -34 -34 -34 -34 -34 -34 -34 -34 -34 -34 -34 -34 -34 -34 -34 -35 -35 -35 -35 -35 -35 -35 -36 -36 -36 -36 -36 -36
-30 -30 -30 -30 -31 -31 -32 -32 -32 -32 -33 -34 -34 -34 -34 -34 -34 -34 -34 -34 -34 -34 -34 -34 -34 -34 -34 -34 -34 -34 -34 -35 -35 -35 -35 -35 -35 -36 -36 -36 -36 -36 -36 -36

GFSNGP_500_temp_027.txt.gz
Temp
-14 -14 -14 -14 -15 -15 -15 -15 -15 -15 -16 -16 -16 -16 -17 -18 -18 -17 -18 -18 -18 -18 -17 -17 -18 -18 -18 -18 -19 -19 -20 -21 -21 -22 -23 -23 -25 -27 -29 -29 -30 -31 -32 -32
-14 -14 -15 -15 -15 -15 -15 -15 -15 -15 -16 -16 -16 -17 -17 -18 -18 -18 -18 -18 -18 -18 -18 -18 -18 -18 -18 -19 -20 -20 -21 -21 -23 -23 -24 -27 -29 -30 -31 -32 -31 -32 -33 -33
-14 -15 -15 -15 -15 -15 -15 -16 -16 -16 -16 -16 -17 -18 -18 -18 -18 -18 -18 -18 -18 -18 -18 -18 -18 -18 -19 -19 -20 -21 -22 -23 -24 -25 -27 -29 -30 -31 -31 -31 -32 -33 -33 -33
-15 -15 -15 -15 -15 -15 -15 -16 -16 -16 -16 -17 -17 -17 -18 -18 -18 -18 -18 -18 -18 -18 -18 -18 -18 -19 -20 -20 -21 -22 -23 -24 -25 -27 -28 -30 -31 -32 -32 -33 -33 -33 -34 -33
-15 -15 -15 -15 -15 -16 -16 -16 -16 -17 -17 -17 -18 -18 -18 -18 -18 -18 -18 -18 -18 -18 -18 -19 -20 -20 -20 -21 -22 -23 -24 -25 -26 -28 -30 -31 -32 -32 -34 -33 -33 -33 -33 -33
-15 -15 -15 -15 -15 -15 -16 -16 -16 -17 -17 -18 -18 -18 -18 -18 -18 -18 -18 -18 -18 -19 -19 -20 -20 -21 -22 -22 -23 -24 -24 -26 -28 -30 -31 -32 -32 -33 -33 -33 -33 -33 -33 -34
-15 -15 -15 -15 -15 -16 -16 -16 -17 -17 -17 -18 -18 -18 -18 -18 -18 -18 -18 -19 -19 -20 -20 -20 -21 -22 -23 -23 -23 -24 -26 -28 -30 -31 -32 -32 -33 -34 -34 -33 -33 -33 -33 -33
-15 -15 -15 -15 -15 -16 -17 -17 -17 -17 -18 -18 -18 -18 -18 -18 -18 -19 -19 -19 -20 -20 -20 -21 -22 -22 -23 -23 -24 -25 -28 -30 -30 -31 -32 -33 -33 -33 -33 -33 -33 -33 -33 -33
-16 -16 -16 -16 -16 -17 -17 -17 -17 -18 -18 -19 -19 -19 -19 -19 -19 -19 -19 -20 -20 -21 -21 -22 -23 -23 -23 -24 -26 -28 -30 -30 -31 -32 -33 -33 -33 -33 -33 -33 -33 -33 -33 -33
-16 -16 -16 -16 -16 -17 -17 -18 -18 -18 -19 -19 -19 -19 -19 -19 -19 -20 -20 -20 -21 -22 -22 -23 -23 -24 -24 -26 -28 -29 -30 -31 -32 -32 -33 -32 -32 -33 -33 -33 -33 -33 -33 -33
-17 -17 -17 -17 -17 -18 -18 -18 -19 -19 -19 -19 -19 -20 -20 -20 -20 -20 -21 -22 -22 -23 -23 -23 -24 -24 -25 -27 -29 -30 -31 -32 -32 -32 -32 -32 -32 -33 -33 -33 -33 -33 -33 -33
-17 -17 -18 -18 -18 -18 -18 -19 -19 -20 -20 -20 -20 -20 -20 -20 -21 -21 -22 -22 -23 -23 -24 -24 -25 -26 -27 -29 -30 -31 -31 -32 -32 -32 -32 -32 -33 -33 -33 -33 -33 -34 -33 -33
-17 -18 -18 -18 -19 -19 -19 -19 -20 -20 -20 -20 -20 -20 -21 -21 -22 -22 -23 -23 -23 -24 -24 -25 -26 -27 -28 -30 -30 -31 -32 -32 -32 -32 -32 -32 -32 -33 -33 -33 -34 -34 -34 -34
-18 -18 -18 -19 -19 -19 -20 -20 -20 -20 -20 -20 -20 -21 -21 -22 -23 -23 -24 -24 -24 -25 -25 -26 -27 -29 -29 -30 -31 -31 -32 -32 -32 -32 -32 -32 -33 -33 -33 -33 -34 -34 -34 -34
-19 -19 -19 -19 -19 -20 -20 -20 -20 -20 -20 -21 -21 -21 -22 -23 -23 -24 -24 -24 -25 -26 -27 -28 -29 -30 -30 -31 -31 -31 -32 -32 -32 -32 -32 -32 -33 -33 -33 -34 -34 -34 -34 -34
-19 -19 -19 -20 -20 -20 -20 -20 -20 -21 -21 -21 -22 -22 -23 -24 -24 -24 -25 -25 -26 -27 -29 -30 -30 -31 -31 -31 -31 -32 -32 -33 -33 -32 -32 -32 -33 -33 -33 -34 -34 -34 -34 -34
-19 -20 -20 -20 -20 -20 -20 -21 -21 -21 -22 -22 -23 -24 -24 -24 -24 -25 -26 -27 -28 -29 -30 -31 -31 -31 -31 -32 -32 -32 -33 -33 -33 -33 -33 -33 -33 -33 -34 -34 -34 -34 -35 -35
-20 -20 -20 -20 -20 -21 -21 -21 -22 -22 -23 -23 -24 -24 -25 -25 -25 -26 -27 -28 -29 -30 -31 -31 -32 -32 -32 -32 -32 -33 -33 -33 -33 -33 -33 -33 -33 -34 -34 -34 -34 -35 -35 -35
-20 -20 -20 -21 -21 -21 -22 -22 -23 -24 -24 -24 -24 -25 -25 -26 -26 -27 -28 -29 -30 -31 -32 -32 -32 -32 -32 -32 -33 -33 -33 -33 -33 -33 -33 -33 -33 -34 -34 -34 -35 -35 -35 -35
-20 -21 -21 -21 -22 -22 -23 -23 -24 -24 -25 -25 -25 -26 -26 -27 -28 -29 -30 -30 -31 -32 -32 -33 -33 -32 -33 -33 -33 -33 -33 -33 -33 -33 -33 -34 -34 -34 -34 -35 -35 -35 -35 -35
-21 -22 -22 -23 -23 -23 -24 -24 -25 -25 -26 -26 -26 -27 -28 -29 -30 -30 -31 -31 -32 -33 -33 -33 -33 -33 -33 -33 -34 -34 -34 -34 -34 -34 -34 -34 -34 -34 -35 -35 -35 -35 -35 -36
-22 -23 -23 -23 -24 -25 -25 -26 -26 -26 -27 -27 -28 -29 -29 -30 -31 -31 -32 -33 -33 -33 -33 -33 -33 -33 -33 -33 -34 -34 -34 -34 -34 -34 -34 -34 -34 -35 -35 -35 -35 -35 -36 -36
-23 -24 -24 -25 -25 -26 -26 -27 -27 -28 -28 -29 -29 -30 -31 -31 -32 -32 -32 -33 -34 -34 -34 -34 -34 -34 -34 -34 -34 -34 -34 -34 -34 -34 -34 -34 -35 -35 -35 -35 -35 -36 -36 -36
-25 -25 -26 -26 -27 -27 -27 -28 -28 -29 -30 -30 -30 -31 -31 -31 -32 -33 -33 -34 -34 -34 -34 -34 -34 -34 -34 -34 -34 -34 -34 -34 -34 -34 -34 -35 -35 -35 -35 -35 -36 -36 -36 -36
-26 -27 -27 -27 -28 -28 -29 -29 -30 -31 -31 -31 -31 -31 -32 -32 -33 -34 -34 -34 -34 -34 -34 -34 -34 -34 -34 -34 -34 -34 -34 -34 -34 -34 -35 -35 -35 -35 -36 -36 -36 -36 -36 -36
-27 -28 -28 -29 -29 -30 -30 -31 -31 -31 -31 -31 -32 -32 -32 -33 -34 -34 -34 -34 -34 -34 -34 -34 -34 -34 -34 -34 -34 -34 -34 -34 -34 -34 -35 -35 -35 -35 -36 -36 -36 -36 -36 -36
-29 -30 -30 -30 -31 -31 -31 -31 -31 -31 -31 -32 -32 -33 -33 -33 -34 -34 -34 -34 -34 -34 -34 -34 -34 -34 -34 -34 -34 -34 -34 -35 -35 -35 -35 -35 -36 -36 -36 -36 -36 -36 -36 -36

GFSNGP_500_temp_030.txt.gz
Temp
-14 -14 -14 -14 -15 -15 -15 -15 -15 -15 -15 -16 -16 -16 -17 -17 -17 -17 -18 -18 -18 -18 -18 -18 -18 -18 -19 -18 -19 -19 -20 -20 -20 -20 -21 -22 -23 -24 -26 -29 -31 -32 -32 -32
-14 -14 -15 -15 -15 -15 -15 -15 -15 -15 -16 -16 -16 -17 -17 -17 -17 -18 -18 -18 -18 -18 -18 -19 -18 -19 -19 -19 -19 -19 -20 -20 -21 -22 -23 -23 -24 -26 -29 -30 -32 -32 -33 -33
-14 -15 -15 -15 -15 -15 -15 -15 -16 -16 -16 -16 -16 -17 -17 -18 -18 -19 -19 -19 -18 -18 -18 -18 -19 -19 -19 -19 -19 -20 -20 -21 -22 -23 -24 -25 -27 -28 -30 -31 -32 -33 -34 -34
-15 -15 -15 -15 -15 -15 -15 -15 -16 -16 -16 -16 -17 -17 -17 -18 -19 -19 -19 -18 -19 -19 -19 -19 -19 -19 -19 -20 -20 -21 -22 -22 -23 -24 -25 -26 -28 -29 -30 -31 -33 -34 -34 -34
-15 -15 -15 -15 -15 -16 -15 -16 -16 -16 -16 -17 -17 -17 -18 -18 -19 -19 -18 -19 -19 -19 -18 -19 -19 -20 -20 -20 -21 -22 -23 -24 -24 -24 -26 -28 -29 -30 -31 -32 -34 -34 -33 -33
-15 -15 -15 -15 -15 -15 -15 -16 -16 -16 -17 -17 -18 -18 -18 -18 -19 -19 -19 -19 -18 -19 -19 -19 -20 -20 -21 -21 -22 -23 -23 -24 -24 -25 -28 -29 -30 -31 -32 -32 -33 -33 -33 -33
-15 -15 -15 -15 -15 -15 -16 -16 -16 -16 -17 -17 -18 -18 -18 -19 -19 -19 -19 -19 -19 -19 -20 -20 -20 -21 -21 -22 -23 -23 -24 -25 -26 -28 -29 -30 -31 -32 -32 -32 -33 -33 -33 -33
-15 -16 -15 -16 -15 -16 -16 -16 -16 -17 -17 -18 -18 -18 -19 -19 -19 -19 -19 -19 -20 -20 -20 -20 -20 -21 -22 -23 -24 -24 -25 -26 -28 -29 -30 -31 -32 -32 -32 -32 -33 -33 -33 -33
-16 -16 -16 -16 -16 -16 -16 -16 -16 -17 -18 -18 -18 -18 -19 -19 -19 -19 -20 -20 -20 -20 -20 -21 -21 -22 -23 -24 -24 -25 -26 -27 -29 -30 -31 -32 -32 -32 -32 -33 -33 -33 -33 -33
-16 -16 -16 -16 -16 -16 -16 -16 -17 -18 -18 -18 -19 -19 -20 -20 -20 -20 -20 -20 -20 -21 -21 -22 -23 -24 -24 -24 -25 -26 -27 -29 -30 -31 -32 -32 -32 -32 -32 -33 -33 -33 -33 -33
-16 -16 -16 -16 -16 -17 -17 -17 -18 -18 -19 -19 -19 -20 -20 -20 -20 -20 -20 -20 -21 -22 -22 -23 -24 -24 -25 -25 -26 -28 -29 -30 -30 -31 -32 -32 -32 -32 -32 -33 -33 -33 -33 -34
-16 -17 -17 -17 -17 -17 -18 -18 -18 -19 -19 -19 -19 -20 -20 -20 -20 -21 -21 -21 -22 -23 -23 -24 -24 -25 -25 -26 -27 -29 -30 -30 -31 -32 -32 -32 -32 -32 -32 -33 -33 -33 -34 -34
-17 -18 -18 -18 -18 -18 -19 -19 -19 -19 -20 -20 -20 -20 -20 -21 -21 -21 -22 -22 -23 -24 -24 -25 -25 -26 -27 -28 -29 -30 -30 -31 -31 -32 -33 -33 -32 -32 -33 -33 -33 -34 -34 -34
-18 -18 -18 -19 -19 -19 -19 -19 -20 -20 -20 -20 -20 -20 -21 -21 -21 -22 -23 -23 -24 -25 -25 -25 -26 -28 -29 -30 -30 -31 -31 -32 -32 -32 -33 -33 -33 -33 -33 -33 -34 -34 -34 -34
-18 -19 -19 -19 -19 -19 -20 -20 -20 -20 -20 -21 -21 -21 -21 -22 -22 -23 -24 -24 -25 -25 -26 -27 -28 -29 -30 -31 -31 -31 -32 -32 -32 -33 -33 -33 -33 -33 -33 -33 -34 -34 -34 -34
-19 -19 -19 -19 -19 -20 -20 -20 -21 -21 -21 -21 -21 -22 -22 -23 -23 -24 -25 -25 -25 -26 -27 -28 -29 -30 -31 -32 -32 -32 -32 -33 -33 -33 -33 -33 -33 -33 -33 -33 -34 -34 -34 -35
-19 -20 -19 -20 -20 -21 -20 -21 -21 -21 -21 -22 -22 -23 -23 -24 -24 -25 -25 -26 -27 -28 -29 -29 -30 -31 -32 -32 -33 -33 -33 -33 -33 -34 -33 -33 -33 -33 -34 -34 -34 -34 -35 -35
-20 -20 -20 -20 -20 -21 -21 -21 -22 -22 -22 -22 -23 -24 -24 -25 -25 -25 -26 -27 -28 -29 -30 -31 -31 -32 -32 -33 -33 -33 -33 -33 -33 -34 -34 -34 -34 -34 -34 -34 -34 -35 -35 -35
-20 -20 -20 -21 -21 -21 -22 -22 -23 -23 -24 -24 -24 -25 -25 -26 -26 -27 -28 -29 -29 -30 -31 -31 -32 -33 -33 -33 -34 -34 -34 -33 -34 -34 -34 -34 -34 -34 -34 -34 -34 -35 -35 -35
-20 -20 -21 -21 -22 -23 -23 -23 -24 -24 -25 -25 -25 -26 -26 -27 -27 -28 -29 -30 -30 -30 -31 -32 -33 -33 -33 -34 -34 -34 -34 -34 -34 -34 -34 -34 -34 -34 -34 -34 -35 -35 -35 -35
-21 -21 -22 -23 -23 -24 -24 -24 -25 -25 -26 -26 -26 -27 -27 -28 -29 -29 -30 -30 -31 -31 -33 -33 -33 -34 -34 -34 -34 -34 -34 -34 -34 -34 -34 -34 -34 -34 -34 -35 -35 -35 -35 -35
-23 -23 -24 -24 -24 -25 -25 -25 -26 -26 -26 -27 -28 -29 -29 -30 -30 -30 -31 -31 -32 -32 -33 -34 -34 -34 -34 -34 -34 -34 -34 -34 -34 -34 -34 -34 -34 -35 -35 -35 -35 -35 -35 -36
-24 -25 -25 -25 -25 -26 -26 -26 -27 -27 -28 -29 -29 -30 -30 -30 -31 -31 -31 -32 -32 -33 -34 -34 -34 -34 -34 -34 -34 -34 -34 -34 -34 -34 -34 -34 -35 -35 -35 -35 -35 -35 -36 -36
-25 -25 -26 -26 -26 -27 -27 -28 -29 -29 -30 -30 -31 -31 -31 -31 -31 -32 -32 -32 -33 -33 -34 -34 -34 -34 -34 -34 -34 -34 -34 -34 -34 -34 -34 -34 -34 -35 -35 -35 -35 -36 -36 -36
-26 -27 -28 -28 -28 -28 -29 -29 -30 -30 -31 -31 -31 -31 -31 -31 -31 -31 -32 -33 -33 -34 -34 -34 -34 -34 -34 -34 -34 -34 -34 -34 -34 -34 -35 -35 -35 -35 -35 -35 -36 -36 -36 -36
-28 -28 -29 -29 -30 -30 -30 -30 -30 -31 -31 -31 -31 -31 -31 -31 -31 -32 -33 -34 -34 -34 -34 -34 -34 -34 -34 -34 -34 -34 -34 -34 -34 -34 -34 -35 -35 -35 -36 -36 -36 -36 -36 -36
-29 -30 -30 -30 -31 -31 -31 -31 -31 -31 -31 -31 -31 -31 -31 -31 -31 -32 -34 -34 -34 -34 -34 -34 -34 -34 -34 -34 -34 -33 -33 -34 -34 -34 -34 -34 -35 -35 -36 -36 -36 -36 -36 -36

GFSNGP_500_temp_033.txt.gz
Temp
-15 -15 -15 -15 -15 -15 -15 -15 -15 -15 -15 -15 -15 -16 -16 -16 -16 -17 -17 -18 -18 -18 -19 -19 -19 -19 -19 -19 -19 -19 -19 -19 -20 -20 -20 -21 -22 -23 -24 -25 -26 -28 -29 -30
-15 -15 -15 -15 -15 -15 -15 -15 -15 -15 -15 -15 -16 -16 -16 -16 -17 -17 -17 -18 -18 -19 -19 -19 -19 -19 -19 -19 -19 -19 -19 -20 -20 -20 -21 -22 -23 -24 -25 -26 -28 -28 -29 -30
-15 -15 -15 -14 -15 -15 -15 -15 -15 -15 -15 -15 -16 -16 -16 -16 -17 -17 -18 -18 -19 -19 -19 -19 -19 -19 -19 -19 -19 -19 -20 -20 -20 -21 -23 -23 -24 -25 -26 -28 -29 -30 -31 -32
-15 -15 -15 -15 -15 -15 -15 -15 -15 -15 -16 -16 -16 -16 -16 -17 -17 -18 -18 -19 -19 -19 -19 -19 -19 -19 -19 -19 -19 -20 -20 -21 -22 -23 -23 -24 -25 -26 -28 -29 -30 -31 -32 -32
-15 -15 -15 -15 -15 -15 -15 -15 -16 -16 -16 -16 -16 -16 -17 -17 -18 -18 -18 -19 -19 -19 -19 -19 -19 -20 -19 -20 -20 -21 -21 -22 -23 -23 -24 -25 -26 -28 -29 -30 -31 -31 -32 -32
-15 -15 -15 -15 -15 -16 -15 -15 -16 -16 -16 -16 -17 -17 -18 -18 -18 -18 -19 -19 -20 -20 -20 -20 -20 -20 -20 -21 -21 -22 -22 -23 -24 -24 -25 -26 -27 -29 -30 -31 -32 -32 -32 -32
-15 -15 -15 -15 -16 -16 -16 -15 -16 -16 -16 -17 -17 -17 -18 -18 -19 -19 -19 -20 -20 -20 -20 -20 -20 -20 -21 -21 -22 -22 -23 -24 -24 -25 -27 -27 -29 -30 -31 -32 -32 -32 -32 -32
-15 -15 -15 -16 -16 -16 -16 -16 -16 -16 -16 -17 -17 -18 -18 -19 -19 -19 -20 -20 -20 -20 -20 -20 -21 -21 -21 -22 -22 -24 -24 -25 -26 -27 -28 -29 -30 -31 -32 -32 -32 -32 -32 -33
-16 -16 -16 -16 -16 -16 -16 -16 -16 -16 -17 -17 -18 -18 -18 -19 -19 -20 -20 -20 -20 -20 -21 -21 -21 -22 -22 -23 -24 -24 -25 -26 -27 -28 -29 -30 -31 -31 -32 -32 -32 -32 -33 -33
-16 -16 -16 -16 -16 -16 -16 -16 -17 -17 -17 -18 -18 -19 -19 -19 -20 -20 -20 -20 -21 -21 -21 -22 -22 -22 -23 -24 -25 -25 -26 -28 -29 -29 -30 -31 -31 -32 -32 -32 -32 -33 -33 -33
-16 -16 -16 -16 -17 -17 -17 -17 -17 -18 -18 -19 -19 -19 -19 -20 -20 -20 -20 -21 -21 -22 -22 -22 -23 -24 -24 -25 -25 -27 -28 -29 -30 -30 -31 -31 -32 -33 -33 -33 -33 -33 -33 -33
-16 -16 -16 -17 -17 -17 -17 -18 -18 -19 -19 -19 -19 -19 -20 -20 -20 -21 -21 -21 -22 -22 -23 -23 -24 -25 -25 -26 -27 -28 -29 -30 -31 -31 -32 -32 -32 -33 -33 -33 -33 -33 -33 -33
-17 -17 -17 -17 -18 -18 -18 -19 -19 -19 -19 -19 -19 -19 -20 -21 -21 -21 -22 -22 -22 -23 -23 -24 -25 -26 -26 -27 -28 -30 -31 -31 -32 -32 -32 -33 -33 -33 -33 -33 -33 -33 -33 -34
-18 -18 -18 -18 -18 -19 -19 -19 -20 -19 -19 -19 -20 -20 -21 -21 -22 -22 -23 -23 -23 -24 -25 -25 -26 -27 -28 -28 -30 -30 -31 -32 -32 -32 -33 -33 -33 -34 -33 -33 -33 -34 -34 -34
-18 -19 -19 -19 -19 -19 -20 -20 -20 -20 -19 -20 -21 -21 -22 -22 -23 -23 -23 -24 -24 -25 -26 -26 -27 -28 -29 -29 -30 -31 -32 -32 -33 -33 -33 -34 -34 -34 -34 -34 -34 -34 -34 -34
-19 -19 -19 -19 -19 -20 -20 -20 -20 -20 -21 -21 -22 -22 -22 -23 -23 -24 -24 -25 -25 -26 -26 -27 -28 -29 -29 -30 -31 -32 -32 -33 -33 -33 -33 -34 -34 -34 -34 -34 -34 -34 -34 -34
-19 -19 -19 -20 -20 -20 -20 -20 -20 -21 -21 -22 -22 -23 -23 -24 -24 -25 -25 -26 -26 -26 -27 -28 -29 -30 -30 -31 -32 -32 -33 -33 -34 -34 -34 -34 -34 -34 -34 -34 -34 -34 -34 -35
-20 -20 -20 -20 -20 -20 -20 -21 -21 -22 -22 -23 -24 -24 -24 -25 -25 -26 -26 -27 -27 -28 -29 -29 -30 -30 -31 -32 -32 -33 -33 -34 -34 -34 -34 -34 -34 -34 -34 -34 -34 -34 -34 -35
-20 -20 -20 -20 -21 -21 -21 -22 -23 -23 -24 -24 -24 -25 -25 -26 -26 -27 -27 -28 -29 -29 -30 -30 -31 -31 -32 -33 -33 -34 -34 -34 -34 -34 -34 -34 -34 -34 -35 -35 -34 -34 -35 -35
-20 -20 -20 -21 -22 -23 -23 -24 -24 -24 -24 -25 -25 -26 -27 -27 -28 -28 -29 -29 -30 -30 -30 -31 -31 -32 -33 -34 -34 -34 -34 -34 -34 -34 -34 -34 -34 -34 -34 -35 -35 -35 -35 -35
-21 -22 -23 -23 -24 -24 -24 -25 -25 -25 -26 -26 -27 -27 -28 -28 -29 -29 -30 -30 -30 -31 -31 -31 -32 -33 -33 -34 -34 -34 -34 -34 -34 -34 -34 -34 -34 -34 -34 -35 -35 -35 -35 -35
-22 -23 -24 -24 -25 -25 -25 -26 -26 -27 -27 -28 -28 -29 -29 -30 -30 -30 -31 -31 -31 -31 -31 -32 -33 -33 -34 -34 -34 -34 -34 -34 -34 -34 -34 -34 -34 -34 -34 -34 -35 -35 -35 -35
-24 -25 -25 -26 -26 -26 -26 -26 -27 -28 -28 -29 -29 -30 -30 -30 -31 -31 -31 -31 -31 -31 -31 -32 -33 -34 -34 -34 -34 -34 -34 -34 -34 -34 -34 -34 -34 -34 -34 -35 -35 -35 -35 -35
-25 -26 -26 -26 -26 -28 -28 -28 -28 -29 -29 -30 -30 -31 -31 -31 -31 -32 -31 -31 -31 -31 -31 -32 -33 -34 -34 -34 -34 -34 -34 -34 -34 -34 -34 -34 -34 -34 -34 -35 -35 -35 -36 -36
-27 -28 -28 -28 -28 -28 -29 -29 -29 -30 -31 -31 -31 -31 -31 -32 -32 -31 -31 -31 -31 -31 -31 -31 -33 -34 -34 -34 -34 -34 -34 -34 -34 -34 -34 -34 -34 -34 -34 -34 -35 -35 -36 -36
-29 -29 -29 -29 -29 -29 -30 -30 -31 -31 -31 -31 -31 -31 -32 -32 -32 -31 -31 -31 -31 -31 -31 -32 -33 -34 -34 -35 -35 -35 -34 -34 -34 -34 -34 -34 -34 -34 -34 -34 -34 -35 -36 -36
-29 -30 -30 -30 -31 -31 -31 -31 -31 -31 -31 -32 -31 -31 -32 -32 -32 -32 -32 -31 -31 -31 -31 -32 -33 -34 -34 -35 -35 -35 -35 -35 -35 -34 -34 -34 -34 -34 -34 -34 -35 -35 -36 -36

GFSNGP_500_temp_036.txt.gz
Temp
-15 -15 -15 -15 -15 -15 -15 -15 -14 -15 -15 -15 -15 -15 -15 -15 -15 -16 -16 -16 -17 -17 -17 -18 -18 -19 -19 -19 -19 -19 -19 -19 -20 -20 -20 -20 -21 -22 -22 -23 -24 -25 -26 -28
-15 -15 -15 -15 -15 -15 -15 -15 -15 -15 -15 -15 -15 -15 -15 -16 -16 -16 -16 -17 -17 -17 -18 -18 -19 -19 -20 -20 -20 -19 -19 -20 -20 -20 -20 -21 -22 -23 -23 -24 -25 -26 -28 -30
-15 -15 -15 -14 -15 -15 -15 -15 -15 -15 -15 -15 -15 -15 -16 -16 -16 -16 -17 -17 -18 -18 -18 -19 -19 -20 -20 -20 -20 -20 -20 -20 -20 -21 -21 -22 -23 -24 -25 -25 -27 -28 -30 -31
-15 -15 -14 -14 -15 -15 -15 -15 -15 -15 -15 -15 -15 -16 -16 -16 -16 -17 -17 -18 -18 -18 -19 -19 -20 -20 -20 -20 -20 -20 -20 -21 -21 -22 -22 -23 -24 -25 -26 -27 -28 -30 -31 -32
-15 -15 -14 -14 -15 -15 -15 -15 -15 -15 -16 -16 -16 -16 -16 -16 -17 -17 -18 -18 -19 -19 -19 -20 -20 -20 -21 -21 -21 -21 -21 -22 -22 -22 -23 -24 -25 -26 -27 -29 -30 -31 -32 -32
-15 -14 -14 -14 -15 -15 -15 -15 -16 -16 -16 -16 -16 -16 -17 -17 -18 -18 -18 -19 -19 -19 -20 -20 -20 -21 -21 -21 -21 -22 -22 -22 -23 -24 -25 -25 -26 -27 -29 -30 -31 -31 -32 -32
-15 -14 -14 -15 -15 -16 -16 -16 -15 -16 -16 -16 -16 -16 -17 -18 -18 -19 -19 -19 -19 -20 -20 -21 -21 -21 -21 -21 -22 -22 -23 -23 -24 -25 -25 -26 -28 -29 -30 -31 -31 -32 -32 -32
-15 -15 -15 -15 -16 -16 -16 -16 -16 -16 -16 -16 -17 -17 -18 -18 -18 -19 -19 -19 -20 -20 -21 -21 -21 -21 -22 -22 -22 -23 -23 -24 -25 -25 -26 -28 -29 -30 -31 -31 -32 -33 -33 -33
-15 -15 -16 -15 -16 -16 -16 -16 -16 -16 -17 -17 -18 -18 -18 -18 -19 -19 -19 -20 -20 -21 -21 -21 -22 -22 -23 -23 -24 -24 -24 -25 -25 -27 -28 -29 -30 -31 -32 -32 -33 -33 -33 -33
-16 -16 -16 -16 -16 -16 -16 -16 -17 -17 -17 -18 -18 -18 -18 -19 -19 -19 -20 -21 -21 -21 -21 -22 -23 -23 -23 -24 -24 -25 -25 -26 -27 -28 -29 -30 -31 -32 -32 -33 -33 -33 -33 -33
-16 -16 -16 -17 -17 -17 -17 -17 -17 -18 -18 -18 -19 -19 -19 -19 -20 -20 -20 -20 -21 -22 -22 -23 -23 -24 -24 -24 -25 -26 -26 -27 -28 -29 -30 -31 -32 -32 -33 -33 -34 -33 -33 -33
-16 -17 -17 -17 -18 -18 -18 -18 -18 -18 -19 -19 -19 -20 -20 -20 -20 -20 -20 -21 -22 -22 -23 -23 -24 -24 -25 -25 -26 -26 -27 -28 -29 -29 -30 -32 -33 -33 -33 -34 -34 -34 -33 -34
-17 -17 -17 -18 -18 -18 -18 -19 -19 -19 -19 -20 -20 -20 -20 -20 -20 -21 -21 -22 -22 -23 -23 -24 -24 -25 -26 -26 -27 -28 -28 -29 -30 -30 -31 -32 -33 -33 -34 -34 -34 -34 -34 -34
-18 -18 -18 -18 -18 -19 -19 -19 -19 -19 -20 -20 -20 -20 -21 -20 -21 -22 -22 -22 -23 -23 -24 -24 -25 -26 -26 -27 -28 -29 -29 -30 -30 -31 -32 -33 -33 -33 -34 -34 -34 -34 -34 -34
-18 -18 -18 -19 -19 -19 -20 -20 -20 -20 -20 -20 -21 -21 -21 -22 -22 -22 -23 -23 -23 -24 -25 -25 -26 -27 -27 -28 -29 -30 -30 -31 -31 -32 -33 -33 -33 -34 -34 -34 -34 -34 -34 -34
-18 -19 -19 -19 -19 -20 -20 -20 -20 -21 -21 -21 -21 -22 -23 -23 -23 -24 -24 -24 -25 -25 -25 -26 -27 -28 -29 -29 -30 -31 -31 -32 -32 -33 -33 -34 -34 -34 -34 -34 -35 -35 -35 -35
-19 -19 -19 -20 -20 -20 -20 -20 -21 -21 -21 -22 -23 -23 -24 -24 -24 -24 -25 -25 -25 -26 -27 -27 -28 -29 -29 -30 -30 -31 -32 -32 -33 -33 -34 -34 -34 -34 -34 -34 -34 -35 -35 -35
-20 -20 -20 -20 -20 -20 -21 -21 -21 -22 -23 -24 -24 -24 -24 -24 -25 -25 -25 -26 -27 -27 -28 -29 -29 -30 -30 -31 -31 -32 -32 -33 -34 -34 -34 -34 -34 -34 -34 -34 -34 -35 -35 -35
-20 -20 -20 -21 -21 -21 -21 -21 -22 -24 -24 -24 -24 -25 -25 -25 -26 -26 -27 -27 -28 -29 -29 -30 -30 -31 -31 -31 -31 -32 -33 -34 -34 -34 -34 -34 -34 -34 -34 -34 -35 -35 -35 -35
-20 -21 -21 -21 -22 -22 -23 -24 -25 -25 -25 -25 -25 -25 -26 -27 -27 -28 -28 -29 -30 -30 -30 -31 -31 -31 -31 -31 -32 -33 -34 -34 -34 -34 -34 -34 -34 -35 -34 -34 -34 -34 -35 -35
-21 -22 -22 -23 -24 -25 -25 -25 -25 -26 -26 -27 -27 -27 -27 -28 -29 -29 -30 -30 -31 -31 -31 -31 -31 -31 -31 -31 -32 -33 -34 -34 -34 -34 -34 -34 -34 -34 -35 -35 -35 -35 -35 -35
-23 -24 -24 -25 -25 -25 -26 -26 -27 -27 -27 -28 -28 -29 -29 -29 -30 -30 -31 -31 -31 -31 -31 -31 -32 -32 -32 -32 -32 -33 -34 -34 -34 -34 -34 -34 -34 -34 -34 -35 -35 -35 -35 -35
-25 -25 -25 -26 -27 -27 -27 -28 -28 -29 -29 -29 -29 -29 -30 -30 -31 -31 -31 -31 -31 -31 -31 -32 -32 -32 -32 -31 -31 -33 -34 -34 -34 -34 -34 -34 -34 -34 -34 -34 -34 -35 -35 -35
-26 -27 -27 -27 -28 -28 -29 -29 -29 -29 -29 -29 -30 -31 -31 -31 -31 -32 -32 -32 -32 -32 -32 -32 -32 -32 -32 -32 -32 -33 -34 -34 -35 -35 -34 -35 -34 -34 -34 -34 -34 -34 -34 -35
-28 -28 -28 -29 -29 -29 -29 -29 -29 -30 -30 -31 -31 -31 -32 -32 -32 -32 -32 -32 -32 -32 -32 -32 -32 -32 -32 -32 -32 -34 -34 -34 -35 -35 -35 -35 -35 -35 -35 -35 -35 -34 -34 -35
-29 -29 -29 -29 -29 -29 -30 -30 -30 -30 -31 -31 -31 -32 -32 -32 -32 -32 -32 -33 -33 -33 -33 -32 -32 -32 -32 -33 -33 -34 -34 -35 -35 -36 -36 -36 -35 -35 -35 -35 -35 -35 -35 -35
-29 -30 -30 -30 -30 -30 -30 -31 -31 -31 -31 -31 -31 -32 -32 -32 -32 -32 -33 -33 -33 -33 -33 -33 -33 -33 -33 -33 -34 -34 -35 -36 -36 -36 -36 -36 -36 -36 -36 -35 -35 -35 -35 -35

GFSNGP_500_temp_042.txt.gz
Temp
-15 -15 -15 -15 -15 -15 -15 -15 -15 -15 -15 -16 -15 -15 -15 -15 -15 -15 -15 -15 -15 -16 -16 -16 -16 -17 -17 -18 -19 -19 -19 -19 -20 -20 -20 -21 -21 -21 -22 -22 -23 -23 -24 -24
-15 -15 -15 -15 -15 -15 -15 -15 -15 -15 -15 -15 -15 -15 -15 -15 -15 -15 -15 -16 -16 -16 -16 -17 -17 -17 -18 -18 -19 -19 -19 -20 -20 -20 -21 -21 -22 -22 -22 -23 -23 -23 -24 -25
-15 -15 -15 -14 -15 -15 -15 -15 -15 -15 -15 -15 -15 -15 -15 -15 -15 -15 -16 -16 -16 -17 -17 -17 -18 -18 -18 -19 -19 -19 -20 -20 -21 -21 -21 -22 -22 -23 -23 -23 -24 -24 -25 -26
-15 -15 -14 -15 -15 -15 -15 -15 -15 -15 -15 -15 -15 -15 -15 -15 -16 -16 -16 -17 -17 -17 -17 -18 -18 -18 -19 -19 -20 -20 -20 -21 -21 -21 -22 -22 -23 -23 -24 -24 -24 -25 -26 -28
-15 -15 -14 -14 -14 -15 -15 -15 -15 -15 -15 -15 -15 -15 -16 -16 -16 -17 -17 -17 -17 -18 -18 -18 -19 -19 -20 -20 -20 -20 -21 -21 -21 -22 -22 -23 -23 -24 -24 -25 -25 -26 -27 -29
-15 -14 -14 -14 -15 -15 -15 -14 -15 -15 -15 -15 -15 -16 -16 -16 -17 -17 -17 -18 -18 -18 -19 -19 -19 -20 -20 -20 -20 -21 -21 -22 -22 -21 -22 -23 -24 -24 -25 -25 -26 -27 -29 -30
-15 -15 -14 -15 -14 -14 -14 -14 -14 -15 -15 -15 -16 -16 -17 -17 -17 -18 -18 -18 -19 -19 -19 -20 -20 -20 -20 -20 -21 -21 -22 -22 -22 -22 -23 -24 -24 -24 -25 -26 -27 -29 -30 -31
-15 -15 -14 -15 -14 -14 -14 -15 -15 -15 -16 -16 -17 -17 -17 -18 -18 -18 -19 -19 -19 -20 -20 -20 -20 -20 -20 -21 -21 -22 -23 -23 -23 -23 -24 -24 -25 -25 -26 -27 -29 -30 -30 -32
-15 -15 -15 -14 -14 -14 -15 -15 -16 -16 -17 -17 -17 -17 -18 -18 -18 -19 -19 -19 -19 -20 -19 -20 -20 -20 -21 -22 -22 -23 -23 -23 -23 -24 -24 -25 -25 -26 -27 -29 -30 -30 -31 -32
-15 -15 -15 -15 -15 -15 -15 -16 -17 -17 -17 -17 -18 -18 -18 -18 -19 -19 -19 -20 -20 -20 -20 -20 -20 -21 -22 -22 -22 -23 -23 -24 -24 -24 -25 -26 -27 -27 -29 -30 -31 -31 -32 -33
-15 -15 -15 -16 -16 -16 -16 -17 -17 -17 -18 -18 -18 -18 -19 -19 -19 -19 -20 -20 -20 -20 -20 -21 -22 -22 -22 -23 -23 -23 -24 -24 -24 -25 -26 -27 -28 -29 -30 -31 -31 -32 -33 -33
-15 -16 -16 -16 -16 -17 -17 -17 -18 -18 -18 -19 -19 -19 -19 -19 -20 -20 -20 -20 -21 -21 -22 -22 -22 -22 -23 -23 -23 -24 -25 -25 -25 -27 -27 -28 -29 -30 -31 -32 -32 -33 -33 -34
-16 -17 -17 -17 -18 -18 -18 -18 -19 -19 -19 -19 -19 -19 -20 -20 -20 -20 -21 -21 -21 -22 -22 -22 -22 -23 -23 -25 -25 -25 -26 -27 -27 -28 -29 -30 -30 -31 -31 -32 -33 -34 -34 -34
-17 -18 -18 -18 -18 -18 -18 -19 -19 -19 -19 -19 -20 -20 -20 -20 -21 -21 -22 -22 -23 -23 -23 -23 -23 -24 -25 -25 -25 -26 -26 -27 -28 -29 -30 -31 -31 -31 -32 -33 -34 -34 -34 -34
-18 -18 -18 -18 -19 -19 -19 -19 -20 -20 -20 -20 -20 -21 -21 -21 -22 -22 -23 -23 -24 -24 -24 -24 -24 -25 -25 -26 -26 -27 -28 -29 -30 -30 -31 -31 -32 -32 -32 -33 -34 -34 -34 -34
-19 -19 -19 -19 -19 -19 -19 -20 -20 -20 -20 -21 -21 -21 -22 -22 -23 -23 -23 -24 -25 -25 -25 -25 -25 -26 -27 -27 -28 -28 -29 -30 -31 -31 -31 -31 -32 -32 -33 -33 -34 -34 -34 -34
-19 -19 -19 -20 -20 -20 -20 -20 -20 -21 -21 -21 -22 -23 -23 -23 -24 -25 -25 -26 -25 -25 -26 -26 -27 -28 -28 -29 -30 -30 -31 -31 -32 -32 -32 -32 -32 -32 -33 -34 -34 -34 -34 -34
-20 -20 -20 -20 -20 -20 -21 -21 -21 -22 -22 -22 -23 -23 -24 -25 -26 -26 -26 -26 -27 -28 -28 -29 -29 -29 -30 -30 -31 -31 -31 -32 -32 -32 -32 -32 -32 -32 -33 -34 -34 -35 -35 -34
-20 -20 -21 -21 -21 -21 -22 -22 -22 -22 -23 -24 -25 -26 -26 -26 -26 -27 -28 -29 -29 -29 -29 -30 -30 -30 -31 -31 -31 -32 -32 -32 -32 -33 -33 -32 -32 -32 -33 -34 -34 -35 -35 -34
-21 -21 -21 -21 -22 -22 -23 -23 -24 -24 -25 -25 -26 -27 -28 -28 -29 -29 -29 -30 -30 -30 -30 -30 -30 -31 -31 -32 -32 -32 -32 -32 -32 -33 -33 -33 -32 -32 -33 -34 -34 -35 -35 -35
-21 -21 -22 -23 -23 -24 -24 -24 -25 -25 -27 -27 -28 -29 -29 -29 -30 -30 -30 -30 -30 -30 -30 -30 -31 -31 -32 -32 -32 -32 -33 -33 -33 -33 -33 -33 -33 -33 -33 -34 -35 -35 -35 -35
-22 -23 -24 -24 -24 -24 -25 -26 -27 -28 -28 -29 -29 -29 -30 -30 -30 -30 -30 -30 -30 -30 -31 -31 -32 -32 -33 -33 -33 -33 -33 -33 -33 -33 -33 -33 -33 -33 -34 -34 -35 -35 -35 -35
-24 -24 -24 -24 -25 -25 -26 -28 -28 -29 -29 -29 -29 -30 -30 -30 -30 -30 -30 -30 -30 -31 -31 -32 -32 -32 -32 -32 -33 -33 -33 -33 -33 -33 -33 -34 -34 -34 -34 -35 -36 -36 -36 -36
-24 -24 -25 -25 -26 -27 -28 -29 -29 -30 -30 -30 -30 -30 -30 -30 -30 -30 -30 -31 -31 -31 -32 -32 -32 -32 -32 -33 -33 -33 -33 -33 -34 -34 -34 -34 -34 -35 -35 -36 -36 -36 -36 -36
-25 -25 -26 -27 -28 -29 -29 -30 -30 -30 -30 -30 -30 -30 -30 -30 -30 -31 -31 -31 -32 -32 -32 -32 -33 -33 -33 -33 -33 -34 -34 -34 -34 -35 -35 -35 -35 -36 -36 -37 -37 -37 -37 -37
-26 -27 -28 -29 -30 -30 -30 -30 -30 -30 -30 -30 -30 -30 -31 -31 -31 -31 -31 -32 -32 -32 -33 -33 -33 -33 -33 -34 -34 -35 -35 -35 -35 -35 -36 -36 -36 -36 -37 -38 -38 -38 -38 -38
-28 -29 -30 -30 -30 -30 -30 -30 -30 -30 -31 -31 -31 -31 -31 -31 -31 -32 -32 -32 -33 -33 -33 -33 -33 -34 -34 -35 -35 -35 -35 -36 -36 -36 -36 -37 -37 -37 -38 -38 -38 -38 -38 -38

GFSNGP_500_temp_045.txt.gz
Temp
-16 -15 -16 -15 -15 -15 -15 -15 -15 -15 -15 -15 -16 -15 -15 -14 -15 -15 -15 -15 -15 -16 -16 -16 -16 -17 -17 -17 -18 -18 -19 -19 -19 -19 -20 -20 -20 -21 -21 -21 -21 -22 -23 -23
-15 -15 -15 -15 -15 -15 -15 -15 -15 -15 -15 -16 -15 -15 -15 -15 -15 -15 -15 -15 -16 -16 -16 -17 -17 -17 -17 -18 -18 -19 -19 -19 -20 -20 -20 -20 -21 -21 -22 -22 -22 -22 -23 -24
-15 -15 -15 -15 -15 -15 -15 -15 -15 -15 -15 -15 -15 -15 -15 -15 -15 -15 -15 -16 -16 -16 -17 -17 -18 -18 -18 -19 -19 -19 -19 -20 -20 -20 -21 -21 -21 -22 -22 -22 -22 -23 -24 -24
-16 -16 -15 -15 -15 -15 -15 -15 -15 -15 -15 -15 -15 -15 -15 -15 -15 -15 -16 -16 -17 -17 -18 -18 -18 -18 -19 -19 -19 -20 -20 -20 -20 -21 -21 -21 -22 -22 -23 -23 -23 -24 -24 -25
-15 -15 -15 -15 -14 -15 -15 -15 -15 -15 -15 -14 -15 -15 -15 -15 -16 -16 -17 -17 -17 -18 -18 -18 -18 -19 -19 -19 -20 -20 -20 -20 -21 -21 -21 -22 -22 -23 -23 -23 -24 -24 -25 -25
-16 -15 -15 -15 -15 -15 -15 -15 -14 -15 -15 -15 -15 -15 -16 -16 -16 -17 -17 -17 -18 -18 -18 -18 -19 -19 -20 -20 -20 -20 -20 -21 -21 -22 -22 -22 -22 -23 -23 -24 -25 -25 -26 -27
-16 -15 -15 -14 -14 -14 -14 -14 -14 -14 -14 -15 -15 -15 -16 -16 -16 -17 -17 -18 -18 -18 -19 -19 -19 -20 -20 -20 -20 -21 -21 -21 -21 -22 -22 -22 -23 -24 -24 -25 -26 -26 -27 -28
-15 -15 -14 -15 -14 -14 -14 -14 -14 -14 -14 -15 -15 -15 -16 -16 -17 -17 -18 -18 -18 -19 -19 -19 -20 -20 -20 -20 -21 -21 -21 -21 -22 -22 -23 -23 -24 -24 -25 -27 -27 -28 -28 -29
-15 -15 -15 -14 -14 -14 -14 -15 -15 -15 -15 -15 -16 -16 -17 -17 -18 -18 -18 -18 -19 -19 -20 -20 -20 -20 -21 -21 -22 -22 -22 -22 -22 -23 -24 -24 -25 -25 -27 -28 -28 -28 -29 -30
-15 -15 -15 -15 -15 -15 -15 -15 -15 -15 -16 -17 -17 -17 -17 -18 -18 -18 -19 -19 -19 -19 -20 -20 -20 -21 -21 -22 -22 -22 -22 -22 -23 -23 -24 -25 -26 -28 -28 -29 -29 -30 -31 -31
-16 -15 -15 -15 -15 -15 -15 -16 -16 -16 -17 -17 -18 -18 -18 -18 -18 -19 -19 -19 -20 -20 -20 -21 -21 -22 -22 -23 -23 -23 -23 -23 -24 -24 -25 -27 -28 -28 -29 -29 -30 -31 -31 -32
-16 -16 -16 -15 -16 -16 -16 -17 -17 -17 -18 -18 -18 -18 -19 -19 -19 -19 -20 -20 -20 -20 -21 -21 -22 -22 -22 -23 -23 -23 -23 -24 -25 -26 -27 -28 -28 -29 -30 -31 -31 -32 -32 -32
-16 -16 -16 -16 -16 -17 -17 -17 -18 -18 -18 -18 -19 -19 -19 -20 -20 -20 -20 -21 -21 -22 -22 -22 -23 -23 -24 -24 -24 -25 -25 -26 -27 -28 -28 -28 -30 -30 -31 -31 -31 -32 -33 -33
-17 -17 -17 -17 -17 -18 -18 -18 -18 -18 -19 -19 -19 -20 -20 -20 -20 -21 -21 -21 -22 -23 -23 -24 -25 -25 -25 -25 -25 -26 -27 -28 -28 -29 -29 -30 -31 -31 -32 -32 -32 -32 -33 -33
-17 -18 -18 -18 -18 -18 -18 -19 -19 -19 -19 -20 -20 -20 -20 -21 -21 -22 -23 -23 -24 -24 -25 -25 -26 -26 -26 -26 -27 -28 -29 -29 -29 -30 -31 -31 -31 -32 -32 -32 -32 -33 -33 -33
-18 -18 -18 -18 -19 -19 -19 -19 -20 -20 -20 -20 -20 -21 -21 -22 -23 -23 -23 -24 -25 -26 -26 -26 -26 -27 -28 -28 -29 -29 -30 -30 -30 -31 -31 -31 -32 -32 -32 -33 -33 -33 -33 -34
-18 -19 -19 -19 -19 -19 -20 -20 -20 -20 -21 -21 -21 -22 -23 -23 -23 -23 -24 -25 -26 -27 -27 -28 -28 -29 -30 -30 -30 -30 -30 -30 -31 -31 -32 -32 -32 -32 -33 -33 -33 -33 -33 -34
-19 -19 -19 -20 -20 -20 -20 -21 -21 -21 -22 -22 -23 -23 -23 -24 -24 -25 -26 -27 -28 -28 -29 -29 -30 -30 -30 -30 -30 -30 -30 -31 -32 -32 -33 -33 -33 -33 -33 -33 -33 -33 -33 -34
-20 -20 -20 -20 -21 -21 -21 -21 -22 -22 -23 -23 -23 -24 -24 -25 -25 -26 -28 -29 -29 -30 -30 -30 -30 -30 -30 -30 -30 -31 -31 -32 -32 -32 -33 -33 -33 -33 -33 -33 -33 -33 -33 -34
-20 -21 -21 -21 -21 -22 -22 -23 -23 -23 -23 -24 -24 -25 -26 -27 -28 -29 -29 -30 -30 -30 -30 -30 -30 -30 -30 -30 -31 -31 -32 -32 -32 -32 -33 -33 -33 -33 -33 -33 -33 -33 -33 -34
-21 -21 -21 -22 -22 -23 -23 -23 -24 -24 -24 -25 -26 -27 -28 -29 -29 -30 -30 -30 -30 -30 -30 -30 -30 -30 -31 -31 -31 -32 -32 -32 -32 -33 -33 -33 -33 -33 -33 -34 -34 -34 -34 -35
-21 -22 -22 -23 -23 -24 -24 -24 -24 -25 -25 -27 -28 -29 -29 -30 -30 -30 -30 -30 -30 -30 -30 -30 -31 -31 -31 -32 -32 -32 -33 -33 -33 -33 -33 -34 -34 -34 -34 -34 -34 -35 -35 -35
-22 -23 -24 -24 -24 -24 -24 -25 -25 -26 -27 -28 -29 -30 -30 -30 -30 -30 -30 -30 -30 -30 -31 -31 -31 -32 -32 -32 -33 -33 -33 -33 -33 -34 -34 -34 -34 -35 -35 -35 -35 -35 -36 -37
-24 -24 -24 -24 -24 -25 -25 -26 -27 -28 -29 -30 -30 -30 -30 -30 -30 -30 -30 -31 -31 -31 -31 -31 -31 -32 -32 -32 -33 -33 -33 -34 -34 -34 -35 -35 -35 -35 -35 -36 -36 -36 -36 -37
-24 -24 -25 -25 -26 -26 -27 -28 -29 -30 -30 -30 -30 -30 -30 -30 -30 -31 -31 -31 -31 -31 -32 -32 -32 -32 -32 -33 -33 -34 -34 -35 -35 -35 -35 -36 -36 -36 -36 -36 -36 -37 -37 -38
-25 -25 -26 -26 -27 -27 -28 -29 -30 -30 -30 -30 -30 -30 -31 -31 -31 -31 -31 -31 -32 -32 -32 -32 -32 -33 -33 -34 -34 -34 -35 -35 -35 -36 -36 -36 -36 -36 -37 -37 -37 -37 -38 -38
-26 -26 -27 -27 -28 -29 -30 -30 -31 -31 -31 -31 -31 -31 -31 -31 -31 -31 -32 -32 -32 -33 -33 -33 -33 -34 -34 -34 -35 -35 -35 -35 -35 -36 -36 -36 -37 -37 -37 -38 -38 -38 -38 -39

GFSNGP_500_temp_048.txt.gz
Temp
-16 -16 -16 -16 -16 -16 -15 -15 -15 -15 -15 -15 -17 -17 -15 -14 -14 -14 -15 -15 -16 -16 -16 -16 -16 -16 -17 -17 -18 -18 -18 -19 -19 -19 -20 -21 -20 -20 -21 -21 -21 -21 -21 -22
-15 -16 -15 -15 -15 -15 -15 -15 -15 -15 -15 -16 -16 -15 -15 -15 -15 -15 -15 -15 -15 -16 -16 -16 -16 -17 -17 -18 -18 -18 -19 -19 -19 -20 -20 -20 -21 -21 -21 -21 -21 -21 -22 -22
-15 -15 -15 -15 -15 -15 -15 -15 -15 -15 -15 -15 -15 -15 -15 -15 -15 -15 -15 -16 -16 -16 -16 -16 -17 -17 -18 -18 -18 -19 -19 -20 -20 -20 -21 -21 -21 -21 -21 -21 -22 -22 -22 -23
-15 -16 -15 -15 -15 -15 -15 -15 -16 -15 -15 -15 -15 -15 -15 -15 -15 -15 -15 -16 -16 -16 -17 -17 -17 -18 -18 -18 -19 -19 -20 -20 -20 -20 -21 -21 -21 -21 -21 -22 -22 -22 -24 -24
-16 -16 -16 -16 -15 -16 -16 -16 -15 -15 -15 -15 -15 -15 -15 -14 -15 -15 -15 -16 -16 -16 -17 -18 -18 -18 -19 -19 -19 -19 -20 -20 -21 -21 -21 -21 -21 -21 -21 -22 -23 -24 -24 -24
-16 -16 -16 -16 -15 -16 -16 -16 -15 -15 -15 -15 -15 -15 -15 -15 -15 -15 -16 -16 -17 -18 -18 -18 -18 -19 -19 -20 -20 -20 -20 -21 -21 -21 -22 -22 -22 -22 -22 -24 -24 -24 -24 -26
-16 -16 -16 -16 -15 -16 -15 -15 -15 -15 -15 -14 -15 -15 -15 -15 -15 -16 -16 -17 -17 -18 -18 -19 -19 -19 -20 -20 -20 -20 -20 -21 -22 -22 -22 -22 -22 -22 -23 -23 -24 -25 -27 -28
-16 -16 -15 -15 -15 -15 -15 -15 -15 -15 -15 -15 -15 -15 -15 -16 -16 -16 -17 -18 -18 -18 -18 -19 -19 -19 -20 -20 -20 -21 -21 -21 -22 -22 -22 -22 -23 -24 -24 -25 -27 -27 -28 -29
-16 -15 -15 -15 -14 -14 -15 -15 -15 -15 -15 -15 -15 -15 -15 -16 -17 -17 -18 -18 -18 -19 -19 -19 -20 -20 -20 -21 -21 -22 -22 -22 -22 -22 -23 -24 -24 -25 -26 -27 -28 -29 -29 -30
-15 -16 -15 -14 -15 -15 -15 -15 -15 -15 -15 -16 -16 -16 -17 -17 -17 -18 -18 -18 -19 -19 -20 -20 -20 -21 -21 -21 -22 -23 -23 -23 -23 -24 -24 -25 -26 -28 -28 -28 -29 -29 -30 -31
-16 -16 -15 -15 -15 -16 -15 -15 -15 -15 -16 -17 -17 -17 -18 -18 -18 -18 -19 -19 -19 -20 -20 -20 -21 -21 -22 -22 -23 -24 -24 -24 -25 -25 -26 -27 -28 -29 -29 -29 -30 -30 -31 -32
-16 -16 -16 -15 -15 -15 -16 -16 -16 -16 -17 -17 -18 -18 -18 -19 -19 -19 -19 -20 -20 -20 -20 -21 -22 -22 -22 -23 -24 -25 -25 -26 -26 -27 -28 -28 -29 -29 -29 -30 -31 -31 -32 -32
-15 -16 -16 -16 -16 -16 -16 -16 -17 -17 -18 -18 -18 -19 -19 -19 -19 -20 -20 -20 -21 -21 -21 -22 -23 -24 -24 -24 -25 -26 -26 -27 -28 -29 -29 -30 -30 -30 -30 -30 -31 -32 -32 -32
-16 -16 -16 -16 -16 -17 -17 -17 -18 -18 -18 -19 -19 -19 -20 -20 -20 -20 -21 -21 -22 -22 -23 -23 -23 -24 -25 -26 -27 -27 -28 -29 -29 -30 -30 -30 -30 -30 -31 -31 -32 -32 -33 -32
-17 -17 -16 -17 -17 -17 -18 -18 -18 -19 -19 -19 -19 -20 -20 -20 -20 -21 -21 -22 -23 -23 -23 -24 -24 -25 -27 -28 -28 -29 -30 -30 -30 -30 -30 -30 -30 -31 -32 -32 -33 -33 -33 -33
-17 -17 -17 -18 -18 -18 -18 -19 -19 -19 -19 -20 -20 -20 -21 -21 -21 -22 -22 -23 -23 -24 -24 -25 -26 -28 -28 -29 -30 -30 -30 -30 -30 -30 -30 -30 -31 -31 -32 -33 -33 -33 -33 -33
-17 -18 -18 -18 -19 -19 -19 -19 -20 -20 -20 -20 -21 -21 -21 -22 -23 -23 -23 -23 -24 -25 -26 -27 -28 -29 -29 -30 -30 -30 -30 -30 -30 -30 -31 -31 -32 -32 -32 -33 -33 -33 -33 -33
-19 -19 -19 -19 -19 -20 -20 -20 -20 -21 -21 -21 -21 -22 -23 -23 -23 -24 -24 -25 -26 -27 -28 -29 -29 -30 -30 -30 -30 -30 -30 -30 -31 -31 -31 -32 -32 -32 -33 -33 -33 -33 -33 -33
-19 -19 -19 -20 -20 -20 -21 -21 -21 -21 -21 -22 -23 -23 -23 -23 -24 -24 -25 -26 -27 -28 -29 -30 -30 -30 -30 -30 -30 -30 -30 -31 -31 -31 -32 -32 -33 -33 -33 -33 -33 -34 -34 -34
-20 -20 -20 -20 -21 -21 -21 -21 -21 -22 -23 -23 -23 -24 -24 -24 -25 -25 -26 -28 -29 -30 -30 -30 -30 -30 -30 -31 -31 -31 -30 -31 -31 -32 -32 -33 -33 -33 -33 -34 -34 -34 -34 -34
-20 -20 -21 -21 -21 -21 -22 -22 -23 -23 -24 -24 -24 -24 -25 -25 -26 -27 -28 -29 -30 -30 -30 -30 -30 -30 -31 -31 -31 -31 -31 -32 -32 -32 -33 -33 -33 -33 -34 -34 -34 -35 -35 -35
-21 -21 -21 -21 -21 -22 -23 -23 -24 -24 -24 -24 -25 -25 -26 -26 -27 -29 -30 -30 -30 -30 -30 -31 -31 -31 -31 -31 -31 -32 -32 -32 -32 -33 -33 -34 -34 -34 -35 -35 -35 -35 -35 -36
-21 -21 -22 -22 -23 -24 -24 -24 -24 -24 -25 -25 -26 -26 -27 -28 -30 -30 -31 -31 -31 -31 -31 -31 -31 -31 -31 -32 -32 -32 -33 -33 -33 -34 -34 -35 -35 -35 -35 -36 -36 -36 -36 -36
-22 -23 -23 -24 -24 -24 -24 -25 -25 -25 -26 -26 -27 -28 -29 -30 -31 -31 -31 -31 -31 -31 -31 -31 -31 -32 -32 -32 -33 -33 -34 -34 -34 -35 -35 -35 -35 -36 -36 -36 -36 -36 -37 -37
-23 -24 -24 -24 -25 -25 -25 -25 -26 -26 -27 -28 -29 -30 -31 -31 -31 -31 -31 -31 -31 -31 -31 -32 -32 -33 -33 -34 -35 -35 -35 -35 -35 -35 -35 -35 -35 -36 -36 -36 -37 -37 -37 -37
-24 -25 -25 -25 -25 -25 -26 -26 -27 -28 -29 -30 -31 -31 -31 -31 -31 -31 -31 -31 -31 -32 -32 -33 -33 -34 -35 -35 -35 -35 -35 -35 -34 -34 -35 -35 -35 -36 -36 -37 -37 -37 -37 -38
-25 -25 -25 -26 -26 -27 -27 -28 -29 -30 -31 -31 -31 -31 -31 -31 -31 -31 -31 -32 -32 -32 -33 -34 -35 -35 -35 -35 -35 -35 -34 -34 -34 -35 -35 -36 -36 -37 -37 -38 -38 -38 -38 -39

GFSNGP_500_temp_051.txt.gz
Temp
-16 -16 -16 -15 -15 -15 -16 -16 -15 -15 -16 -16 -16 -16 -16 -15 -14 -14 -15 -15 -15 -15 -16 -16 -16 -17 -17 -17 -18 -18 -18 -19 -19 -19 -19 -20 -20 -20 -21 -21 -21 -21 -21 -22
-15 -15 -15 -15 -15 -16 -16 -16 -16 -16 -16 -16 -16 -16 -16 -15 -15 -16 -16 -16 -16 -16 -16 -16 -17 -17 -17 -18 -18 -18 -19 -19 -19 -19 -20 -20 -21 -21 -21 -21 -21 -22 -22 -22
-15 -15 -15 -15 -15 -16 -16 -16 -16 -16 -15 -15 -16 -15 -15 -15 -16 -16 -16 -16 -16 -16 -16 -17 -17 -17 -17 -18 -18 -18 -19 -19 -20 -20 -20 -21 -21 -21 -21 -21 -21 -22 -22 -22
-15 -15 -15 -15 -15 -15 -16 -16 -16 -16 -15 -15 -16 -16 -16 -15 -15 -16 -15 -16 -16 -16 -17 -17 -17 -17 -18 -18 -18 -18 -19 -19 -20 -20 -21 -21 -21 -21 -22 -22 -22 -22 -22 -23
-15 -15 -15 -16 -15 -16 -16 -16 -16 -16 -16 -16 -16 -15 -15 -16 -16 -16 -15 -15 -16 -16 -16 -17 -18 -18 -18 -18 -19 -19 -19 -20 -21 -21 -21 -21 -22 -22 -22 -22 -22 -23 -24 -25
-16 -16 -15 -16 -16 -16 -16 -16 -16 -16 -16 -16 -16 -16 -16 -16 -15 -15 -15 -16 -16 -17 -17 -18 -18 -19 -19 -19 -20 -20 -20 -20 -21 -21 -21 -22 -22 -23 -23 -23 -24 -25 -25 -27
-16 -16 -16 -16 -16 -16 -16 -16 -16 -16 -15 -15 -15 -15 -15 -15 -15 -15 -16 -16 -17 -17 -18 -18 -19 -19 -19 -20 -20 -20 -21 -21 -21 -22 -23 -23 -23 -24 -24 -24 -25 -26 -28 -28
-16 -16 -16 -16 -15 -16 -16 -16 -16 -15 -15 -15 -15 -15 -15 -15 -15 -16 -17 -17 -17 -18 -18 -19 -19 -19 -20 -20 -20 -21 -21 -22 -22 -23 -23 -24 -25 -25 -25 -26 -27 -28 -29 -29
-16 -16 -15 -15 -15 -15 -16 -15 -15 -15 -15 -15 -15 -15 -15 -15 -16 -17 -17 -18 -18 -18 -18 -19 -19 -20 -20 -20 -21 -21 -22 -23 -23 -24 -24 -25 -26 -26 -27 -28 -29 -29 -30 -30
-16 -16 -15 -15 -15 -16 -15 -15 -15 -16 -16 -16 -16 -16 -16 -16 -17 -17 -18 -18 -18 -19 -19 -20 -20 -20 -20 -21 -21 -22 -23 -23 -24 -24 -25 -27 -28 -28 -29 -30 -30 -30 -30 -30
-16 -15 -15 -15 -15 -15 -16 -15 -16 -16 -16 -16 -16 -16 -17 -17 -18 -18 -18 -18 -19 -19 -20 -20 -20 -20 -21 -21 -22 -22 -23 -24 -24 -26 -27 -28 -29 -29 -30 -30 -30 -30 -30 -30
-16 -16 -16 -16 -16 -16 -16 -16 -16 -16 -16 -17 -17 -17 -18 -18 -18 -19 -19 -19 -20 -20 -20 -20 -21 -21 -22 -22 -22 -23 -23 -25 -26 -27 -29 -29 -30 -30 -30 -30 -31 -31 -31 -31
-16 -16 -16 -16 -16 -16 -16 -16 -16 -17 -17 -17 -18 -18 -19 -19 -19 -19 -20 -20 -20 -20 -21 -21 -22 -22 -22 -23 -23 -24 -25 -27 -28 -29 -29 -30 -30 -30 -30 -30 -31 -31 -31 -32
-16 -16 -16 -16 -16 -16 -16 -17 -17 -17 -18 -18 -19 -19 -19 -19 -20 -20 -20 -21 -21 -21 -21 -22 -23 -23 -23 -24 -24 -25 -27 -28 -29 -29 -30 -30 -30 -31 -31 -31 -31 -31 -32 -33
-17 -17 -17 -17 -17 -17 -17 -17 -18 -18 -18 -19 -19 -19 -20 -20 -20 -21 -21 -21 -21 -22 -23 -23 -23 -24 -24 -25 -26 -27 -29 -29 -30 -30 -30 -31 -31 -31 -31 -31 -31 -31 -32 -33
-17 -17 -17 -17 -17 -17 -18 -18 -19 -19 -19 -19 -20 -20 -20 -21 -21 -21 -21 -22 -23 -23 -23 -24 -24 -24 -25 -26 -28 -29 -30 -30 -30 -30 -30 -31 -31 -31 -31 -31 -32 -32 -32 -33
-18 -18 -18 -18 -18 -18 -19 -19 -19 -19 -19 -20 -20 -21 -21 -21 -21 -22 -22 -23 -23 -24 -24 -24 -25 -25 -27 -28 -29 -30 -30 -30 -30 -30 -31 -31 -31 -31 -31 -32 -32 -33 -33 -34
-18 -18 -18 -18 -19 -19 -19 -19 -20 -20 -20 -21 -21 -21 -21 -21 -22 -23 -23 -24 -24 -24 -25 -25 -26 -27 -29 -30 -30 -30 -30 -31 -31 -31 -31 -31 -31 -32 -32 -32 -33 -33 -33 -34
-18 -19 -19 -19 -19 -19 -20 -20 -20 -21 -21 -21 -21 -21 -22 -23 -23 -24 -24 -24 -25 -25 -26 -27 -28 -29 -30 -30 -31 -31 -31 -31 -31 -31 -31 -32 -32 -33 -33 -33 -33 -33 -34 -34
-20 -20 -20 -20 -20 -20 -21 -21 -21 -21 -21 -21 -22 -23 -23 -24 -24 -24 -25 -25 -25 -26 -27 -28 -29 -30 -31 -31 -31 -31 -31 -31 -31 -32 -32 -33 -33 -33 -33 -33 -34 -34 -35 -35
-20 -20 -20 -20 -20 -21 -21 -21 -21 -21 -22 -23 -23 -24 -24 -24 -25 -25 -25 -26 -27 -28 -29 -30 -31 -31 -31 -31 -31 -31 -31 -31 -32 -33 -34 -34 -35 -35 -35 -35 -35 -36 -36 -36
-20 -20 -21 -21 -21 -21 -21 -22 -22 -22 -23 -24 -24 -25 -25 -25 -26 -26 -27 -28 -29 -30 -30 -31 -31 -31 -31 -31 -31 -31 -32 -32 -34 -34 -34 -35 -35 -35 -36 -36 -36 -36 -36 -36
-21 -21 -21 -22 -22 -22 -22 -22 -23 -24 -24 -25 -25 -25 -25 -26 -27 -28 -28 -29 -31 -31 -31 -31 -31 -31 -31 -32 -32 -32 -32 -33 -33 -34 -34 -34 -35 -35 -35 -35 -36 -36 -36 -37
-22 -22 -22 -22 -22 -23 -24 -24 -25 -25 -25 -25 -26 -26 -27 -27 -28 -29 -30 -31 -31 -31 -31 -31 -31 -31 -32 -32 -32 -33 -33 -33 -33 -33 -33 -33 -34 -34 -34 -35 -35 -36 -36 -37
-22 -22 -22 -23 -24 -24 -25 -25 -25 -25 -26 -26 -27 -27 -28 -29 -30 -31 -31 -31 -31 -31 -31 -31 -32 -32 -32 -33 -33 -33 -33 -33 -33 -33 -33 -33 -34 -34 -35 -36 -36 -36 -37 -37
-23 -24 -24 -25 -25 -25 -25 -26 -26 -27 -27 -28 -29 -29 -30 -31 -31 -32 -32 -32 -32 -32 -32 -32 -32 -33 -33 -33 -34 -34 -34 -34 -34 -34 -34 -34 -36 -36 -37 -37 -37 -38 -38 -39
-25 -25 -25 -25 -26 -26 -26 -27 -27 -28 -29 -30 -31 -31 -32 -32 -32 -32 -32 -32 -32 -32 -33 -33 -33 -33 -34 -34 -35 -34 -34 -34 -34 -34 -35 -36 -37 -38 -38 -38 -38 -39 -39 -40

GFSNGP_500_temp_057.txt.gz
Temp
-17 -17 -17 -17 -17 -17 -17 -16 -16 -16 -16 -16 -16 -16 -16 -16 -16 -16 -15 -15 -16 -15 -15 -15 -15 -15 -15 -16 -16 -17 -17 -17 -17 -17 -18 -18 -18 -19 -20 -20 -20 -20 -21 -21
-17 -17 -17 -17 -17 -17 -17 -16 -16 -16 -15 -16 -16 -16 -16 -16 -16 -16 -16 -16 -16 -15 -15 -15 -15 -16 -16 -16 -17 -17 -17 -17 -18 -18 -19 -19 -20 -20 -20 -20 -20 -21 -21 -22
-16 -16 -17 -17 -16 -16 -16 -16 -16 -16 -16 -16 -16 -16 -16 -16 -16 -17 -16 -16 -16 -16 -16 -16 -16 -15 -15 -16 -17 -17 -18 -18 -18 -18 -19 -19 -19 -20 -20 -21 -21 -22 -22 -23
-16 -16 -16 -16 -16 -16 -16 -16 -16 -16 -16 -16 -16 -17 -16 -16 -16 -16 -16 -16 -16 -16 -16 -16 -15 -16 -16 -16 -17 -17 -18 -18 -19 -19 -19 -19 -20 -20 -21 -21 -22 -22 -23 -23
-16 -16 -16 -16 -16 -16 -16 -16 -16 -16 -16 -16 -17 -17 -17 -17 -17 -16 -16 -16 -16 -16 -15 -16 -16 -16 -16 -17 -17 -18 -18 -19 -19 -19 -20 -20 -20 -21 -21 -22 -22 -23 -23 -23
-16 -16 -16 -16 -16 -16 -16 -16 -16 -16 -17 -17 -17 -17 -17 -17 -17 -17 -16 -16 -16 -16 -16 -16 -16 -16 -17 -17 -18 -18 -19 -19 -20 -20 -20 -21 -21 -21 -22 -22 -23 -23 -24 -24
-17 -17 -16 -16 -16 -16 -16 -16 -17 -17 -17 -17 -17 -17 -17 -17 -17 -17 -16 -16 -16 -16 -16 -16 -17 -17 -18 -18 -19 -19 -19 -20 -20 -21 -21 -21 -21 -22 -23 -23 -23 -24 -24 -26
-17 -16 -16 -16 -16 -16 -16 -17 -17 -17 -17 -17 -17 -17 -17 -17 -17 -17 -17 -16 -16 -16 -17 -17 -17 -18 -18 -19 -19 -20 -20 -20 -21 -21 -21 -22 -22 -23 -23 -24 -24 -25 -25 -26
-17 -17 -16 -16 -17 -16 -16 -17 -17 -17 -17 -17 -17 -17 -17 -17 -17 -17 -16 -16 -17 -17 -17 -18 -18 -18 -19 -19 -20 -20 -21 -21 -21 -21 -22 -22 -23 -23 -24 -24 -25 -26 -26 -28
-17 -17 -17 -17 -17 -17 -17 -17 -17 -17 -17 -17 -17 -17 -17 -17 -16 -17 -17 -17 -17 -17 -18 -18 -19 -19 -20 -20 -20 -21 -21 -21 -21 -22 -23 -23 -24 -24 -25 -25 -26 -27 -28 -29
-17 -17 -17 -17 -17 -17 -17 -17 -17 -17 -17 -17 -17 -17 -17 -17 -17 -17 -17 -17 -17 -18 -19 -19 -19 -20 -20 -21 -21 -21 -21 -22 -22 -23 -24 -24 -25 -25 -26 -26 -28 -29 -30 -31
-18 -18 -17 -17 -17 -17 -17 -17 -17 -17 -17 -17 -17 -17 -17 -17 -17 -18 -18 -18 -18 -19 -19 -20 -20 -20 -21 -21 -21 -21 -22 -23 -24 -24 -24 -25 -25 -25 -26 -27 -28 -30 -31 -31
-18 -18 -18 -18 -17 -17 -17 -17 -17 -17 -17 -17 -17 -17 -17 -18 -18 -18 -18 -19 -19 -20 -20 -20 -21 -21 -21 -21 -22 -22 -23 -24 -24 -25 -25 -25 -26 -26 -27 -27 -30 -31 -31 -31
-18 -18 -18 -18 -18 -18 -17 -17 -17 -17 -17 -17 -17 -18 -18 -18 -18 -19 -19 -20 -20 -20 -20 -21 -21 -21 -22 -22 -23 -23 -24 -24 -25 -25 -26 -26 -27 -28 -29 -31 -31 -31 -31 -31
-18 -19 -19 -18 -18 -18 -18 -18 -17 -17 -17 -18 -18 -18 -19 -19 -19 -20 -20 -20 -20 -21 -21 -22 -22 -22 -22 -23 -24 -24 -25 -25 -26 -26 -26 -27 -28 -30 -31 -31 -31 -31 -31 -31
-19 -19 -19 -19 -19 -18 -18 -18 -18 -18 -18 -18 -19 -19 -19 -20 -20 -20 -20 -21 -21 -22 -22 -22 -22 -23 -23 -24 -25 -25 -25 -26 -26 -27 -28 -29 -30 -31 -31 -31 -31 -31 -31 -32
-18 -19 -19 -19 -19 -19 -18 -18 -18 -18 -19 -19 -19 -20 -20 -20 -20 -21 -21 -21 -22 -22 -22 -22 -23 -24 -24 -25 -25 -26 -26 -27 -27 -28 -30 -31 -31 -31 -31 -31 -31 -32 -32 -32
-18 -19 -19 -19 -19 -19 -19 -19 -19 -19 -20 -20 -20 -20 -20 -21 -21 -21 -22 -22 -22 -22 -22 -23 -24 -25 -25 -26 -26 -27 -27 -28 -29 -30 -31 -31 -31 -31 -31 -32 -32 -32 -33 -33
-19 -19 -20 -20 -20 -20 -20 -20 -20 -20 -20 -21 -21 -21 -21 -21 -22 -22 -22 -22 -22 -22 -24 -24 -25 -25 -26 -27 -27 -27 -29 -30 -31 -31 -32 -31 -32 -32 -32 -32 -32 -33 -33 -33
-20 -19 -19 -20 -20 -20 -20 -21 -21 -21 -21 -21 -21 -21 -22 -22 -22 -22 -22 -22 -23 -24 -25 -25 -26 -26 -27 -27 -28 -30 -31 -32 -32 -32 -32 -32 -32 -32 -32 -32 -33 -33 -33 -33
-19 -20 -20 -20 -20 -21 -21 -21 -21 -21 -21 -22 -22 -22 -22 -22 -22 -22 -22 -24 -25 -25 -26 -26 -27 -27 -28 -29 -31 -31 -32 -32 -32 -32 -32 -33 -33 -33 -33 -33 -34 -34 -33 -33
-20 -20 -20 -20 -21 -21 -21 -21 -21 -22 -22 -22 -22 -23 -23 -22 -23 -24 -25 -25 -26 -26 -27 -27 -28 -29 -30 -31 -32 -32 -32 -32 -32 -33 -33 -33 -33 -34 -34 -35 -35 -35 -34 -35
-20 -21 -21 -21 -21 -21 -21 -22 -22 -22 -22 -22 -23 -23 -23 -24 -25 -25 -26 -26 -27 -27 -28 -29 -30 -31 -32 -32 -32 -32 -32 -32 -33 -33 -33 -34 -35 -35 -35 -36 -35 -35 -35 -36
-20 -21 -21 -21 -21 -22 -22 -22 -22 -23 -23 -23 -23 -24 -25 -25 -26 -26 -27 -27 -28 -29 -30 -31 -32 -32 -32 -32 -32 -32 -32 -33 -33 -33 -34 -35 -36 -36 -36 -36 -36 -36 -36 -37
-21 -21 -22 -22 -22 -22 -23 -23 -23 -23 -24 -25 -25 -26 -26 -27 -27 -27 -28 -29 -30 -31 -32 -32 -32 -32 -32 -32 -33 -33 -33 -33 -33 -34 -35 -36 -36 -36 -36 -36 -36 -37 -37 -37
-22 -22 -22 -22 -22 -23 -23 -24 -25 -25 -26 -26 -26 -27 -27 -28 -28 -29 -30 -31 -32 -32 -33 -33 -33 -33 -33 -33 -33 -34 -33 -33 -33 -34 -35 -36 -36 -37 -37 -36 -37 -37 -38 -38
-22 -22 -23 -23 -24 -24 -25 -25 -26 -26 -27 -27 -27 -28 -28 -29 -30 -31 -32 -33 -33 -33 -33 -33 -33 -33 -33 -34 -34 -34 -34 -34 -34 -35 -35 -36 -36 -37 -37 -37 -37 -38 -38 -38

GFSNGP_500_temp_060.txt.gz
Temp
-16 -17 -17 -17 -17 -17 -16 -16 -16 -16 -16 -16 -16 -16 -16 -16 -16 -16 -17 -16 -17 -17 -16 -16 -16 -16 -16 -16 -16 -16 -16 -16 -16 -17 -17 -17 -17 -17 -19 -19 -19 -20 -20 -20
-17 -17 -17 -17 -17 -16 -16 -16 -15 -16 -15 -16 -16 -16 -16 -17 -17 -17 -17 -16 -16 -16 -16 -16 -16 -16 -16 -16 -16 -16 -16 -16 -16 -17 -18 -18 -18 -18 -19 -19 -20 -20 -21 -21
-17 -17 -17 -17 -16 -16 -16 -16 -16 -15 -16 -16 -16 -16 -16 -16 -17 -17 -16 -16 -16 -16 -16 -16 -16 -16 -16 -16 -16 -16 -16 -16 -16 -17 -18 -18 -19 -19 -19 -20 -20 -21 -21 -21
-17 -17 -16 -15 -16 -16 -16 -16 -15 -15 -15 -16 -16 -16 -16 -16 -16 -16 -16 -16 -16 -16 -16 -16 -16 -16 -16 -16 -16 -16 -16 -17 -17 -18 -18 -19 -19 -20 -20 -20 -21 -21 -22 -22
-17 -16 -16 -15 -15 -16 -16 -15 -15 -15 -16 -16 -16 -16 -16 -16 -16 -17 -17 -17 -17 -17 -17 -16 -16 -16 -16 -16 -16 -16 -17 -17 -18 -18 -19 -19 -20 -20 -20 -21 -21 -22 -22 -23
-16 -16 -15 -16 -16 -16 -16 -15 -16 -16 -16 -16 -16 -16 -17 -17 -17 -17 -17 -17 -17 -17 -17 -16 -16 -16 -16 -16 -16 -17 -17 -18 -19 -19 -19 -20 -20 -21 -21 -21 -22 -22 -23 -23
-17 -17 -16 -16 -17 -16 -16 -16 -16 -16 -16 -16 -16 -17 -17 -17 -17 -17 -17 -17 -17 -16 -16 -16 -16 -16 -16 -17 -17 -18 -18 -19 -19 -20 -20 -21 -21 -21 -21 -22 -22 -23 -23 -24
-17 -16 -16 -17 -17 -17 -16 -16 -16 -16 -16 -16 -16 -17 -17 -17 -17 -17 -17 -17 -17 -17 -17 -17 -17 -17 -17 -17 -18 -18 -19 -19 -20 -20 -21 -21 -21 -21 -22 -22 -23 -24 -24 -25
-17 -16 -17 -17 -17 -17 -17 -16 -16 -16 -16 -17 -17 -17 -17 -17 -17 -17 -17 -17 -17 -17 -17 -17 -17 -17 -17 -18 -19 -19 -19 -20 -21 -21 -21 -21 -21 -22 -23 -23 -24 -24 -25 -25
-17 -16 -17 -17 -17 -17 -17 -16 -16 -16 -17 -17 -17 -17 -17 -17 -17 -17 -17 -17 -17 -17 -17 -17 -17 -18 -18 -19 -19 -20 -20 -21 -21 -21 -21 -22 -22 -23 -23 -24 -25 -25 -26 -26
-17 -17 -17 -18 -18 -18 -17 -17 -17 -17 -17 -17 -17 -17 -17 -17 -17 -17 -17 -17 -17 -18 -18 -18 -18 -18 -19 -20 -20 -20 -21 -21 -21 -22 -22 -22 -23 -24 -25 -25 -26 -26 -26 -27
-17 -17 -17 -17 -17 -18 -18 -17 -17 -17 -17 -17 -17 -17 -17 -17 -17 -17 -17 -17 -18 -18 -18 -18 -19 -19 -20 -20 -21 -21 -22 -22 -22 -22 -23 -24 -24 -25 -26 -26 -26 -27 -28 -29
-17 -18 -17 -17 -18 -18 -18 -18 -18 -18 -18 -17 -17 -17 -17 -17 -18 -18 -18 -18 -18 -18 -19 -19 -20 -20 -20 -21 -21 -22 -22 -22 -22 -23 -24 -25 -25 -25 -25 -26 -27 -28 -30 -31
-18 -17 -17 -18 -19 -19 -18 -18 -18 -18 -18 -18 -18 -18 -18 -18 -18 -18 -19 -19 -19 -19 -20 -20 -20 -21 -21 -21 -22 -22 -22 -22 -24 -24 -25 -25 -26 -26 -26 -27 -27 -29 -31 -31
-18 -18 -18 -18 -18 -18 -18 -19 -19 -19 -18 -18 -18 -18 -18 -18 -19 -19 -19 -20 -20 -20 -20 -21 -21 -21 -22 -22 -22 -22 -23 -24 -25 -25 -26 -26 -26 -27 -28 -29 -31 -31 -31 -31
-18 -18 -18 -18 -18 -18 -19 -19 -19 -19 -19 -19 -19 -19 -19 -19 -20 -20 -20 -21 -21 -21 -21 -21 -22 -22 -22 -23 -23 -23 -25 -25 -26 -26 -26 -27 -28 -29 -30 -31 -32 -32 -31 -32
-18 -18 -18 -18 -18 -19 -19 -19 -19 -19 -19 -19 -19 -19 -20 -20 -20 -21 -21 -21 -21 -22 -22 -22 -22 -23 -23 -23 -24 -25 -26 -26 -26 -27 -27 -28 -29 -31 -32 -32 -32 -32 -32 -32
-18 -18 -19 -19 -19 -19 -19 -19 -19 -19 -20 -19 -20 -20 -20 -21 -21 -21 -21 -22 -22 -22 -22 -23 -23 -23 -23 -24 -26 -26 -26 -27 -27 -28 -29 -30 -32 -32 -32 -32 -32 -32 -32 -33
-19 -19 -18 -18 -18 -18 -18 -19 -19 -19 -20 -20 -20 -21 -21 -21 -21 -22 -22 -22 -22 -23 -23 -23 -23 -24 -25 -26 -26 -27 -27 -28 -28 -30 -31 -32 -32 -32 -32 -32 -32 -32 -33 -34
-18 -18 -18 -18 -18 -20 -19 -19 -19 -19 -20 -20 -21 -21 -21 -21 -22 -22 -22 -23 -23 -23 -23 -23 -24 -26 -26 -26 -27 -27 -28 -29 -31 -32 -32 -32 -32 -32 -32 -33 -33 -33 -34 -35
-19 -19 -19 -19 -19 -19 -19 -19 -20 -20 -21 -21 -21 -21 -22 -22 -22 -23 -23 -23 -23 -23 -24 -26 -26 -26 -27 -27 -28 -29 -30 -31 -32 -32 -32 -32 -32 -33 -33 -33 -33 -34 -35 -35
-20 -20 -20 -20 -20 -20 -20 -21 -21 -21 -21 -21 -22 -22 -22 -23 -23 -23 -23 -23 -24 -26 -26 -26 -27 -27 -28 -29 -30 -31 -32 -32 -32 -32 -32 -33 -33 -33 -33 -33 -33 -34 -35 -35
-20 -20 -20 -20 -21 -21 -21 -21 -21 -21 -22 -22 -22 -23 -23 -23 -23 -23 -24 -25 -26 -26 -27 -27 -28 -29 -30 -31 -32 -32 -33 -33 -33 -33 -33 -33 -33 -33 -33 -34 -34 -34 -35 -36
-21 -21 -21 -21 -21 -21 -21 -21 -22 -22 -23 -23 -23 -23 -23 -24 -25 -25 -26 -26 -27 -27 -28 -29 -29 -30 -31 -32 -33 -33 -33 -33 -33 -33 -34 -34 -34 -34 -34 -34 -35 -35 -36 -36
-21 -21 -21 -21 -21 -21 -22 -22 -23 -23 -23 -23 -24 -24 -25 -26 -26 -26 -27 -27 -28 -29 -29 -30 -31 -32 -32 -33 -33 -33 -33 -33 -34 -34 -34 -34 -34 -34 -35 -36 -36 -36 -37 -37
-21 -21 -22 -22 -22 -23 -23 -23 -23 -24 -24 -25 -25 -26 -26 -27 -27 -27 -28 -28 -29 -30 -31 -32 -32 -32 -33 -33 -33 -34 -34 -34 -34 -35 -35 -35 -35 -36 -36 -37 -37 -37 -37 -37
-22 -22 -23 -23 -23 -23 -23 -24 -24 -25 -26 -26 -26 -27 -27 -27 -28 -28 -29 -30 -31 -32 -32 -33 -33 -33 -33 -34 -34 -34 -35 -35 -35 -35 -35 -36 -36 -37 -37 -38 -38 -38 -38 -38

GFSNGP_500_temp_063.txt.gz
Temp
-15 -15 -16 -16 -17 -17 -17 -17 -16 -16 -16 -16 -16 -16 -16 -16 -16 -16 -16 -17 -17 -16 -16 -17 -16 -16 -17 -16 -17 -16 -17 -17 -16 -16 -16 -16 -17 -17 -17 -18 -18 -17 -18 -19
-16 -16 -16 -16 -16 -17 -17 -17 -17 -17 -16 -16 -16 -16 -16 -16 -16 -16 -16 -16 -17 -17 -16 -16 -16 -16 -16 -17 -17 -17 -16 -16 -16 -16 -16 -16 -16 -17 -17 -18 -19 -19 -19 -19
-16 -16 -16 -15 -16 -17 -17 -17 -17 -16 -16 -16 -16 -15 -15 -15 -15 -16 -16 -16 -16 -17 -17 -17 -17 -17 -17 -17 -16 -16 -16 -16 -16 -16 -16 -16 -16 -17 -18 -18 -19 -19 -20 -20
-16 -16 -15 -15 -16 -16 -17 -16 -16 -16 -16 -16 -16 -15 -15 -15 -15 -16 -16 -16 -16 -17 -17 -17 -17 -17 -17 -16 -16 -16 -16 -16 -16 -16 -16 -16 -17 -18 -18 -19 -20 -20 -20 -20
-16 -16 -15 -15 -16 -16 -17 -16 -16 -16 -16 -16 -15 -15 -15 -15 -16 -16 -16 -16 -17 -17 -17 -17 -17 -17 -16 -16 -16 -16 -16 -16 -16 -16 -17 -17 -18 -19 -19 -20 -20 -20 -21 -21
-17 -15 -14 -16 -16 -16 -17 -15 -17 -16 -16 -16 -15 -15 -15 -16 -16 -16 -17 -17 -17 -17 -17 -17 -17 -17 -17 -17 -16 -16 -17 -17 -17 -17 -17 -18 -19 -19 -20 -20 -21 -21 -21 -22
-17 -16 -14 -15 -16 -16 -16 -16 -16 -16 -16 -16 -15 -16 -16 -16 -16 -17 -17 -17 -17 -17 -17 -17 -17 -17 -17 -17 -17 -17 -17 -17 -17 -18 -18 -19 -19 -20 -21 -21 -21 -21 -22 -22
-17 -17 -15 -16 -17 -17 -17 -17 -17 -16 -16 -16 -15 -16 -16 -16 -17 -17 -17 -17 -17 -17 -17 -17 -17 -17 -17 -17 -17 -17 -17 -18 -18 -18 -19 -20 -20 -21 -21 -21 -21 -22 -22 -23
-18 -17 -17 -17 -17 -17 -17 -17 -17 -17 -16 -16 -16 -16 -16 -17 -17 -17 -17 -17 -17 -17 -17 -17 -17 -17 -17 -18 -18 -18 -18 -18 -19 -19 -20 -20 -21 -21 -22 -22 -22 -22 -22 -23
-17 -17 -17 -17 -17 -18 -17 -17 -17 -17 -17 -17 -16 -16 -17 -17 -17 -17 -17 -17 -17 -17 -17 -17 -18 -18 -18 -18 -18 -18 -19 -19 -19 -20 -20 -21 -21 -22 -22 -22 -22 -23 -23 -24
-17 -18 -18 -18 -17 -17 -17 -17 -17 -17 -17 -17 -17 -17 -17 -17 -17 -17 -17 -17 -17 -18 -18 -18 -18 -18 -18 -19 -19 -19 -19 -20 -20 -21 -21 -22 -22 -22 -22 -22 -23 -24 -25 -25
-18 -18 -18 -17 -18 -17 -17 -17 -17 -17 -18 -18 -17 -17 -17 -17 -17 -17 -18 -18 -18 -18 -18 -18 -18 -19 -19 -19 -19 -20 -20 -21 -21 -21 -22 -22 -22 -23 -23 -24 -25 -25 -26 -26
-18 -18 -18 -18 -17 -17 -17 -17 -17 -18 -18 -18 -18 -18 -18 -18 -18 -18 -18 -18 -18 -18 -18 -18 -19 -19 -19 -20 -20 -21 -21 -21 -22 -22 -22 -23 -23 -23 -24 -25 -26 -26 -27 -27
-18 -18 -18 -18 -17 -18 -17 -17 -18 -18 -18 -19 -19 -19 -19 -19 -19 -19 -18 -18 -18 -19 -19 -19 -19 -20 -20 -21 -21 -21 -22 -22 -23 -23 -23 -23 -23 -24 -25 -26 -26 -27 -28 -28
-18 -18 -18 -18 -18 -18 -18 -18 -18 -18 -19 -19 -19 -19 -19 -19 -19 -19 -19 -19 -19 -19 -20 -20 -20 -21 -21 -21 -22 -22 -22 -23 -23 -23 -23 -24 -25 -26 -26 -26 -27 -28 -29 -30
-18 -17 -18 -18 -18 -18 -18 -18 -18 -19 -19 -18 -19 -19 -19 -19 -19 -19 -19 -19 -20 -20 -20 -21 -21 -21 -21 -22 -22 -23 -23 -23 -24 -23 -24 -26 -26 -26 -27 -28 -28 -29 -31 -31
-17 -18 -18 -18 -18 -18 -18 -18 -18 -19 -19 -19 -19 -19 -19 -19 -20 -20 -20 -20 -21 -21 -21 -21 -21 -22 -22 -23 -23 -23 -24 -24 -24 -25 -26 -26 -27 -28 -28 -29 -31 -32 -32 -32
-18 -18 -18 -18 -18 -18 -18 -18 -19 -19 -18 -19 -19 -19 -19 -19 -20 -20 -21 -21 -21 -21 -21 -22 -22 -23 -23 -23 -23 -24 -24 -25 -26 -26 -27 -27 -28 -29 -30 -31 -32 -32 -32 -32
-18 -18 -18 -18 -18 -18 -19 -19 -19 -19 -19 -19 -19 -19 -19 -20 -20 -21 -21 -21 -21 -21 -22 -22 -23 -23 -23 -24 -24 -24 -26 -26 -27 -27 -28 -29 -29 -31 -32 -32 -32 -32 -33 -33
-18 -18 -18 -18 -19 -19 -19 -19 -19 -19 -20 -20 -20 -20 -20 -20 -21 -21 -21 -21 -22 -22 -23 -23 -23 -24 -24 -24 -25 -26 -27 -27 -28 -29 -29 -30 -31 -32 -33 -33 -33 -33 -33 -33
-19 -19 -19 -19 -19 -20 -20 -20 -19 -20 -20 -20 -20 -20 -21 -21 -21 -21 -22 -22 -23 -23 -23 -24 -24 -24 -25 -26 -26 -27 -28 -28 -29 -30 -31 -32 -32 -33 -33 -33 -33 -34 -34 -34
-19 -19 -20 -20 -20 -20 -20 -20 -20 -20 -20 -20 -21 -21 -21 -21 -22 -22 -23 -23 -23 -24 -24 -24 -25 -26 -26 -27 -28 -28 -29 -30 -31 -32 -32 -33 -33 -33 -33 -34 -34 -34 -34 -34
-20 -20 -20 -20 -20 -20 -21 -21 -21 -21 -21 -21 -21 -22 -22 -23 -23 -23 -23 -24 -24 -25 -25 -26 -27 -27 -28 -28 -29 -30 -31 -32 -32 -33 -33 -33 -33 -34 -34 -34 -35 -35 -35 -36
-20 -21 -21 -21 -21 -21 -21 -21 -21 -22 -22 -22 -22 -23 -23 -23 -24 -24 -24 -25 -26 -26 -27 -27 -28 -28 -29 -30 -31 -32 -32 -33 -33 -33 -33 -34 -34 -35 -35 -35 -35 -35 -36 -37
-21 -21 -21 -21 -21 -21 -21 -22 -22 -22 -23 -23 -23 -24 -24 -24 -25 -25 -26 -26 -27 -27 -28 -28 -29 -30 -31 -32 -32 -33 -33 -33 -33 -34 -34 -35 -35 -35 -36 -36 -36 -37 -37 -38
-21 -21 -22 -22 -22 -22 -23 -23 -23 -23 -23 -23 -24 -24 -25 -25 -26 -27 -27 -27 -28 -28 -29 -30 -31 -32 -32 -33 -33 -33 -34 -34 -34 -35 -35 -36 -36 -36 -36 -37 -37 -38 -38 -39
-22 -22 -22 -23 -23 -23 -23 -23 -23 -24 -24 -25 -25 -26 -26 -27 -27 -27 -28 -29 -30 -31 -31 -32 -32 -33 -33 -34 -34 -34 -35 -35 -35 -36 -36 -36 -37 -37 -37 -38 -38 -38 -39 -39

GFSNGP_500_temp_069.txt.gz
Temp
-15 -16 -17 -16 -14 -15 -14 -15 -15 -16 -17 -17 -16 -17 -17 -16 -17 -16 -16 -16 -16 -16 -15 -16 -16 -16 -16 -16 -17 -17 -17 -17 -18 -18 -18 -17 -17 -17 -17 -17 -17 -16 -16 -17
-15 -15 -17 -17 -15 -14 -15 -15 -15 -16 -16 -17 -17 -18 -17 -16 -16 -16 -16 -16 -16 -16 -15 -15 -16 -15 -17 -17 -17 -17 -17 -18 -18 -18 -18 -17 -17 -17 -17 -17 -17 -17 -17 -17
-16 -15 -16 -16 -14 -14 -15 -15 -15 -15 -17 -17 -17 -17 -16 -16 -15 -15 -15 -15 -15 -15 -16 -16 -16 -16 -16 -17 -17 -18 -18 -18 -18 -17 -17 -17 -17 -17 -17 -17 -17 -17 -17 -17
-16 -16 -15 -15 -15 -15 -15 -15 -15 -15 -16 -16 -17 -16 -16 -16 -15 -15 -15 -15 -15 -16 -16 -16 -16 -16 -17 -17 -17 -17 -17 -17 -17 -17 -17 -17 -17 -17 -17 -17 -17 -17 -18 -18
-16 -16 -15 -15 -15 -15 -16 -16 -16 -16 -16 -17 -17 -15 -16 -16 -15 -15 -15 -15 -15 -16 -16 -16 -16 -17 -17 -17 -18 -18 -18 -18 -18 -17 -17 -17 -17 -17 -17 -17 -18 -18 -18 -18
-17 -16 -16 -16 -16 -16 -16 -16 -16 -17 -18 -17 -15 -16 -16 -15 -16 -15 -15 -15 -15 -16 -16 -16 -17 -17 -17 -18 -18 -18 -18 -18 -17 -17 -17 -17 -17 -17 -17 -18 -18 -18 -19 -19
-18 -17 -16 -16 -16 -16 -17 -16 -17 -17 -17 -16 -16 -16 -16 -16 -16 -16 -15 -15 -15 -16 -16 -16 -17 -17 -17 -18 -18 -18 -17 -17 -18 -17 -17 -17 -17 -17 -18 -18 -18 -19 -19 -20
-18 -17 -17 -17 -17 -17 -17 -17 -17 -17 -17 -16 -16 -16 -16 -16 -16 -16 -16 -16 -16 -16 -16 -17 -17 -17 -17 -17 -17 -17 -17 -17 -18 -18 -18 -18 -18 -18 -18 -19 -19 -20 -20 -20
-18 -17 -17 -18 -18 -18 -18 -18 -17 -17 -17 -16 -16 -16 -16 -16 -17 -16 -16 -16 -16 -16 -17 -17 -17 -17 -17 -17 -17 -17 -17 -18 -18 -18 -18 -18 -18 -19 -19 -19 -20 -20 -20 -21
-17 -17 -18 -18 -17 -18 -18 -18 -18 -18 -17 -17 -16 -17 -16 -17 -17 -17 -17 -17 -17 -17 -17 -17 -17 -17 -17 -17 -18 -18 -18 -18 -18 -18 -18 -19 -19 -19 -19 -20 -20 -20 -21 -21
-17 -17 -18 -17 -17 -18 -18 -18 -18 -18 -17 -17 -17 -17 -16 -16 -17 -17 -17 -17 -17 -17 -17 -17 -18 -18 -18 -18 -18 -18 -18 -18 -19 -19 -19 -20 -20 -20 -20 -21 -21 -21 -21 -22
-18 -18 -17 -17 -17 -17 -17 -17 -17 -17 -18 -17 -17 -17 -17 -17 -17 -17 -18 -18 -18 -18 -17 -18 -18 -18 -18 -19 -19 -19 -19 -19 -19 -19 -20 -20 -20 -20 -21 -21 -21 -22 -22 -22
-18 -18 -17 -17 -17 -17 -17 -17 -17 -17 -17 -17 -17 -17 -17 -17 -17 -18 -17 -18 -18 -18 -18 -18 -18 -19 -19 -19 -19 -19 -19 -19 -19 -19 -20 -20 -20 -21 -21 -21 -22 -22 -23 -23
-18 -19 -19 -19 -19 -19 -19 -18 -18 -17 -17 -18 -17 -17 -17 -17 -17 -17 -18 -18 -18 -18 -18 -18 -18 -19 -19 -19 -19 -19 -19 -20 -20 -20 -21 -21 -21 -21 -22 -22 -23 -23 -23 -24
-18 -18 -18 -18 -18 -18 -18 -18 -18 -18 -18 -18 -17 -17 -17 -17 -17 -17 -18 -18 -18 -18 -18 -18 -18 -19 -19 -19 -20 -20 -20 -20 -20 -21 -21 -21 -22 -22 -23 -23 -24 -24 -25 -25
-18 -19 -18 -18 -18 -18 -18 -18 -18 -18 -18 -17 -17 -17 -17 -17 -17 -18 -18 -18 -18 -18 -18 -19 -19 -19 -19 -20 -21 -20 -21 -21 -21 -22 -22 -23 -23 -24 -24 -24 -25 -25 -26 -26
-18 -18 -18 -18 -18 -18 -18 -18 -18 -18 -18 -17 -17 -17 -17 -18 -18 -18 -18 -18 -18 -19 -19 -19 -20 -20 -21 -20 -21 -21 -21 -22 -22 -23 -23 -24 -24 -24 -24 -25 -26 -27 -27 -28
-18 -18 -18 -18 -18 -18 -18 -18 -18 -18 -17 -18 -18 -18 -18 -18 -18 -18 -18 -19 -19 -19 -19 -20 -20 -20 -21 -21 -21 -22 -22 -23 -23 -23 -24 -24 -24 -25 -26 -27 -27 -28 -29 -30
-18 -18 -18 -18 -18 -18 -18 -18 -18 -18 -18 -17 -17 -18 -18 -19 -18 -18 -19 -19 -20 -20 -20 -21 -21 -21 -21 -22 -22 -22 -23 -23 -23 -24 -24 -24 -25 -26 -27 -28 -29 -30 -31 -32
-17 -18 -18 -19 -18 -18 -18 -18 -18 -18 -18 -18 -19 -18 -18 -19 -19 -20 -20 -20 -20 -21 -21 -21 -21 -22 -22 -22 -23 -23 -23 -24 -24 -24 -24 -26 -26 -27 -28 -29 -31 -32 -32 -33
-18 -18 -18 -19 -18 -18 -18 -18 -18 -19 -19 -19 -19 -19 -19 -19 -20 -20 -20 -20 -20 -21 -21 -22 -22 -22 -22 -23 -23 -24 -24 -24 -24 -25 -26 -27 -28 -29 -30 -31 -32 -33 -33 -33
-19 -18 -18 -19 -19 -19 -19 -19 -19 -19 -19 -20 -20 -20 -20 -20 -21 -21 -21 -21 -22 -22 -22 -22 -22 -23 -23 -23 -23 -24 -24 -25 -26 -27 -28 -28 -29 -30 -31 -32 -33 -34 -34 -34
-19 -19 -19 -19 -19 -19 -19 -19 -20 -20 -20 -20 -21 -21 -21 -21 -22 -22 -22 -22 -22 -22 -23 -23 -23 -23 -24 -24 -24 -25 -26 -27 -27 -28 -29 -30 -31 -32 -33 -33 -34 -34 -35 -35
-19 -19 -19 -20 -20 -20 -20 -20 -20 -21 -21 -21 -21 -21 -22 -22 -22 -22 -22 -23 -23 -23 -23 -24 -24 -24 -24 -25 -26 -27 -27 -28 -29 -30 -31 -32 -32 -33 -33 -34 -35 -35 -36 -36
-20 -20 -20 -20 -20 -20 -21 -21 -21 -21 -21 -21 -22 -22 -22 -22 -22 -22 -23 -23 -24 -24 -24 -24 -25 -25 -26 -27 -27 -28 -29 -30 -31 -31 -32 -32 -32 -33 -34 -35 -36 -36 -37 -38
-20 -20 -21 -21 -21 -21 -22 -21 -21 -22 -22 -22 -22 -22 -23 -23 -23 -24 -24 -24 -24 -25 -25 -26 -26 -27 -28 -29 -29 -30 -30 -31 -31 -32 -32 -32 -33 -35 -36 -37 -37 -38 -39 -39
-21 -21 -21 -21 -21 -21 -22 -22 -22 -22 -23 -23 -23 -24 -24 -24 -24 -25 -25 -25 -26 -27 -27 -27 -28 -29 -30 -30 -31 -31 -31 -32 -32 -32 -33 -35 -36 -37 -38 -38 -39 -39 -40 -40

GFSNGP_500_temp_072.txt.gz
Temp
-18 -17 -17 -16 -15 -15 -15 -15 -15 -15 -16 -16 -16 -17 -16 -16 -16 -15 -16 -16 -16 -16 -15 -14 -15 -15 -16 -16 -16 -16 -16 -17 -17 -18 -18 -18 -18 -18 -18 -18 -18 -17 -17 -17
-18 -17 -17 -16 -16 -16 -15 -15 -15 -16 -16 -16 -16 -17 -16 -16 -16 -16 -16 -16 -16 -16 -15 -14 -14 -15 -15 -16 -16 -16 -17 -17 -17 -17 -18 -18 -18 -18 -18 -18 -18 -17 -17 -17
-17 -17 -18 -16 -16 -16 -17 -17 -17 -16 -16 -16 -16 -16 -17 -16 -15 -15 -15 -16 -16 -16 -15 -15 -15 -15 -16 -16 -16 -16 -16 -17 -17 -18 -18 -18 -18 -18 -18 -18 -18 -17 -17 -17
-18 -17 -16 -16 -16 -16 -16 -16 -16 -16 -16 -15 -16 -16 -17 -15 -16 -15 -15 -16 -16 -16 -15 -15 -15 -15 -15 -15 -16 -16 -17 -17 -18 -18 -18 -18 -18 -18 -18 -18 -18 -17 -18 -18
-18 -17 -16 -17 -16 -16 -15 -15 -16 -16 -15 -17 -17 -17 -15 -15 -15 -15 -15 -15 -15 -15 -15 -15 -15 -15 -15 -15 -16 -16 -17 -17 -18 -18 -18 -18 -18 -18 -18 -18 -18 -18 -18 -18
-16 -18 -16 -16 -16 -16 -16 -15 -16 -16 -16 -16 -17 -16 -15 -15 -15 -15 -15 -15 -16 -16 -16 -15 -15 -15 -15 -16 -16 -17 -17 -18 -18 -18 -18 -18 -18 -18 -18 -18 -18 -18 -18 -18
-17 -17 -17 -17 -17 -17 -17 -16 -17 -17 -17 -17 -17 -16 -15 -16 -15 -15 -16 -16 -16 -16 -16 -16 -16 -15 -16 -16 -17 -17 -17 -18 -18 -18 -18 -18 -18 -18 -18 -18 -18 -19 -19 -19
-17 -17 -16 -17 -17 -18 -17 -18 -18 -18 -17 -17 -17 -17 -17 -16 -16 -16 -16 -16 -16 -16 -16 -16 -16 -16 -16 -16 -17 -17 -17 -18 -18 -18 -18 -18 -18 -18 -18 -18 -19 -19 -19 -20
-18 -17 -17 -17 -17 -17 -17 -17 -18 -17 -18 -17 -17 -17 -17 -16 -16 -16 -16 -16 -16 -16 -17 -17 -17 -17 -17 -17 -17 -17 -17 -18 -18 -18 -18 -18 -18 -19 -19 -19 -19 -20 -20 -20
-17 -17 -17 -17 -17 -17 -17 -17 -17 -17 -17 -17 -17 -17 -17 -17 -17 -16 -16 -16 -16 -17 -17 -17 -17 -17 -17 -17 -17 -17 -18 -18 -18 -18 -19 -19 -19 -19 -19 -19 -20 -20 -20 -20
-17 -17 -17 -17 -17 -17 -17 -17 -17 -18 -18 -18 -17 -17 -17 -17 -17 -17 -17 -17 -16 -16 -17 -17 -17 -18 -18 -18 -17 -18 -18 -18 -19 -19 -19 -19 -19 -19 -20 -20 -20 -20 -20 -21
-17 -18 -17 -17 -17 -17 -17 -17 -17 -17 -18 -17 -17 -17 -17 -17 -17 -17 -17 -17 -17 -17 -17 -17 -18 -18 -18 -18 -18 -18 -19 -19 -19 -19 -19 -20 -20 -20 -20 -20 -21 -21 -21 -21
-18 -18 -17 -17 -17 -17 -17 -17 -17 -17 -18 -17 -17 -17 -17 -17 -17 -17 -17 -17 -17 -17 -18 -18 -18 -18 -19 -19 -19 -18 -18 -19 -19 -19 -20 -20 -20 -21 -21 -21 -21 -22 -22 -22
-18 -17 -18 -17 -17 -18 -17 -17 -17 -17 -17 -17 -18 -18 -18 -17 -17 -17 -17 -17 -17 -17 -18 -18 -18 -19 -19 -19 -19 -19 -19 -19 -19 -20 -20 -20 -21 -21 -21 -21 -21 -22 -22 -23
-18 -19 -19 -18 -18 -18 -19 -19 -18 -18 -18 -19 -18 -18 -18 -18 -17 -17 -17 -17 -18 -18 -18 -18 -18 -18 -18 -18 -19 -19 -19 -20 -20 -20 -21 -21 -21 -21 -22 -22 -23 -23 -23 -23
-18 -19 -19 -18 -18 -18 -18 -18 -18 -19 -18 -18 -18 -18 -18 -18 -18 -18 -18 -18 -18 -18 -18 -18 -19 -19 -19 -19 -19 -20 -20 -20 -21 -21 -21 -21 -22 -22 -22 -23 -23 -24 -24 -24
-18 -18 -18 -17 -17 -18 -18 -19 -18 -18 -18 -18 -18 -18 -17 -17 -18 -18 -18 -18 -18 -18 -18 -19 -19 -19 -20 -20 -20 -20 -21 -21 -21 -21 -22 -22 -23 -23 -23 -24 -24 -24 -25 -25
-18 -18 -18 -18 -18 -18 -18 -18 -18 -18 -18 -18 -18 -18 -18 -18 -18 -18 -18 -18 -18 -19 -19 -19 -20 -20 -20 -20 -21 -21 -21 -21 -22 -22 -23 -23 -24 -24 -24 -24 -24 -25 -26 -27
-18 -18 -18 -18 -18 -19 -18 -18 -18 -18 -18 -18 -18 -18 -18 -18 -18 -18 -19 -19 -19 -20 -20 -20 -20 -21 -21 -21 -22 -22 -22 -22 -23 -23 -23 -24 -24 -24 -24 -25 -26 -27 -28 -29
-18 -18 -18 -18 -18 -18 -18 -18 -19 -18 -18 -18 -18 -18 -19 -19 -19 -19 -19 -19 -20 -20 -20 -21 -21 -21 -21 -22 -22 -22 -23 -23 -23 -23 -24 -24 -24 -25 -26 -26 -27 -28 -29 -30
-18 -18 -18 -18 -18 -18 -19 -19 -19 -18 -18 -18 -19 -19 -19 -19 -19 -20 -20 -20 -20 -21 -21 -21 -21 -22 -22 -22 -22 -23 -23 -23 -24 -24 -24 -25 -25 -26 -27 -28 -29 -29 -30 -31
-18 -18 -18 -19 -19 -19 -19 -19 -19 -19 -19 -19 -19 -19 -20 -20 -20 -21 -21 -21 -21 -21 -22 -22 -22 -22 -23 -23 -23 -23 -24 -24 -24 -24 -25 -26 -26 -27 -28 -29 -30 -31 -31 -32
-19 -19 -19 -19 -19 -19 -19 -19 -19 -19 -19 -19 -19 -20 -20 -20 -21 -21 -22 -22 -22 -22 -22 -23 -23 -23 -23 -23 -24 -24 -24 -24 -25 -26 -26 -27 -28 -29 -30 -31 -31 -32 -32 -33
-19 -19 -19 -19 -19 -19 -20 -20 -20 -20 -20 -20 -21 -21 -21 -22 -22 -22 -22 -22 -23 -23 -23 -23 -23 -24 -24 -24 -24 -25 -25 -26 -27 -27 -29 -30 -30 -31 -31 -31 -32 -33 -33 -34
-19 -19 -19 -20 -20 -20 -20 -20 -20 -21 -21 -21 -22 -22 -22 -22 -22 -23 -23 -23 -23 -23 -23 -24 -24 -24 -25 -25 -26 -26 -27 -28 -29 -30 -30 -30 -31 -32 -32 -33 -33 -34 -36 -37
-20 -20 -20 -20 -21 -21 -21 -21 -21 -22 -22 -22 -22 -22 -22 -23 -23 -23 -23 -24 -24 -24 -24 -25 -25 -26 -26 -27 -28 -29 -30 -30 -30 -30 -31 -31 -32 -32 -33 -34 -36 -37 -38 -39
-21 -21 -21 -21 -21 -22 -22 -22 -22 -22 -22 -22 -22 -23 -23 -23 -24 -24 -24 -25 -25 -25 -26 -26 -27 -27 -29 -30 -30 -30 -31 -31 -31 -31 -32 -32 -32 -33 -35 -37 -38 -39 -39 -40

GFSNGP_500_temp_075.txt.gz
Temp
-16 -16 -16 -15 -15 -15 -15 -14 -14 -14 -15 -16 -16 -16 -16 -16 -16 -15 -16 -16 -15 -15 -15 -15 -16 -16 -16 -15 -15 -15 -15 -15 -15 -15 -16 -16 -17 -17 -17 -18 -18 -18 -18 -18
-16 -17 -16 -15 -16 -16 -16 -15 -15 -15 -15 -16 -16 -17 -16 -16 -16 -16 -14 -15 -16 -15 -15 -14 -14 -15 -15 -15 -15 -15 -15 -15 -15 -15 -16 -16 -17 -18 -18 -18 -18 -18 -18 -18
-16 -17 -17 -16 -16 -16 -16 -16 -16 -16 -16 -16 -16 -17 -16 -16 -16 -15 -14 -15 -16 -16 -15 -15 -15 -15 -15 -15 -15 -15 -15 -15 -15 -16 -16 -16 -17 -17 -17 -18 -18 -18 -18 -18
-16 -17 -17 -16 -16 -17 -16 -16 -16 -17 -16 -15 -16 -16 -16 -17 -16 -16 -15 -15 -15 -16 -16 -15 -15 -15 -15 -15 -15 -15 -15 -15 -16 -16 -16 -16 -17 -17 -17 -18 -18 -18 -18 -18
-17 -17 -16 -16 -16 -17 -16 -16 -16 -16 -16 -15 -16 -16 -17 -17 -15 -15 -15 -16 -15 -15 -16 -16 -16 -15 -15 -15 -15 -15 -15 -16 -16 -16 -16 -17 -17 -17 -18 -18 -18 -18 -18 -18
-17 -17 -16 -16 -16 -17 -17 -16 -16 -16 -16 -17 -16 -16 -16 -16 -15 -15 -16 -16 -15 -15 -15 -16 -16 -16 -16 -16 -16 -16 -16 -16 -16 -16 -17 -17 -17 -18 -18 -18 -18 -18 -18 -18
-17 -17 -16 -17 -17 -18 -17 -16 -16 -17 -17 -17 -17 -16 -17 -17 -16 -16 -16 -16 -16 -15 -15 -15 -16 -16 -16 -16 -16 -16 -16 -16 -16 -17 -17 -17 -17 -18 -18 -18 -18 -18 -18 -18
-18 -17 -17 -17 -17 -17 -16 -17 -17 -17 -18 -17 -17 -17 -17 -17 -17 -17 -16 -16 -16 -16 -16 -15 -16 -16 -16 -16 -16 -17 -17 -17 -17 -17 -17 -18 -18 -18 -18 -18 -19 -19 -19 -19
-18 -17 -17 -18 -17 -17 -17 -17 -17 -17 -17 -17 -17 -18 -18 -18 -18 -18 -17 -17 -16 -16 -16 -16 -16 -16 -16 -16 -17 -17 -17 -17 -17 -18 -18 -18 -18 -18 -19 -19 -19 -19 -20 -20
-17 -17 -17 -17 -18 -17 -17 -17 -17 -17 -17 -17 -17 -17 -17 -17 -17 -17 -17 -17 -17 -17 -17 -17 -16 -16 -16 -17 -17 -17 -17 -18 -18 -19 -19 -19 -19 -19 -19 -19 -19 -20 -20 -20
-17 -17 -17 -17 -17 -17 -16 -16 -17 -17 -16 -17 -17 -17 -17 -18 -17 -17 -17 -17 -17 -17 -17 -17 -17 -17 -17 -17 -17 -18 -18 -19 -19 -19 -19 -19 -19 -19 -19 -19 -20 -20 -21 -21
-18 -18 -17 -17 -17 -17 -16 -17 -17 -17 -16 -17 -17 -17 -17 -17 -17 -17 -17 -17 -17 -17 -17 -17 -17 -17 -17 -18 -18 -18 -18 -19 -19 -19 -19 -19 -19 -19 -20 -20 -21 -21 -21 -21
-18 -18 -17 -18 -17 -17 -17 -17 -17 -17 -17 -17 -17 -17 -17 -17 -17 -17 -17 -17 -18 -18 -18 -18 -18 -18 -18 -18 -18 -18 -18 -18 -19 -19 -19 -19 -20 -20 -20 -21 -21 -21 -22 -22
-20 -19 -18 -17 -18 -18 -17 -17 -17 -17 -17 -17 -17 -17 -17 -17 -17 -18 -18 -18 -19 -19 -19 -18 -18 -18 -18 -18 -18 -18 -19 -19 -20 -20 -20 -20 -20 -20 -21 -21 -22 -22 -22 -22
-20 -19 -18 -18 -18 -17 -17 -17 -17 -17 -17 -17 -18 -18 -18 -18 -19 -18 -18 -18 -18 -19 -18 -19 -19 -18 -18 -18 -19 -19 -19 -19 -20 -20 -20 -21 -21 -21 -21 -22 -22 -22 -22 -22
-20 -20 -19 -18 -17 -17 -17 -18 -18 -18 -19 -19 -19 -19 -19 -19 -19 -19 -18 -18 -18 -18 -18 -19 -18 -19 -19 -19 -19 -19 -19 -20 -20 -20 -20 -21 -21 -21 -22 -22 -22 -23 -23 -23
-19 -19 -19 -19 -18 -19 -19 -18 -18 -19 -19 -19 -19 -19 -19 -19 -18 -18 -18 -18 -18 -18 -18 -18 -18 -19 -19 -19 -19 -20 -20 -20 -20 -21 -21 -21 -22 -22 -22 -23 -23 -24 -24 -24
-20 -20 -19 -19 -18 -18 -18 -18 -19 -19 -19 -19 -19 -18 -18 -18 -18 -19 -18 -19 -19 -19 -19 -19 -19 -19 -20 -20 -20 -20 -21 -21 -21 -22 -22 -23 -23 -23 -23 -24 -24 -24 -25 -25
-20 -19 -19 -19 -18 -18 -19 -19 -19 -19 -19 -19 -18 -18 -18 -19 -19 -19 -19 -19 -19 -19 -20 -20 -20 -20 -20 -21 -21 -21 -22 -22 -22 -22 -23 -23 -23 -23 -24 -24 -24 -25 -25 -26
-19 -19 -19 -19 -19 -19 -19 -19 -19 -18 -18 -18 -18 -19 -18 -19 -19 -19 -19 -20 -20 -20 -20 -20 -21 -21 -21 -21 -22 -22 -22 -22 -23 -23 -23 -23 -24 -24 -24 -25 -25 -26 -27 -28
-19 -19 -19 -19 -19 -19 -18 -18 -18 -18 -19 -19 -19 -19 -20 -19 -19 -20 -20 -20 -21 -21 -21 -21 -22 -22 -22 -22 -22 -22 -23 -23 -23 -23 -24 -24 -24 -25 -25 -26 -26 -27 -29 -30
-19 -19 -19 -19 -19 -19 -19 -19 -19 -19 -19 -19 -20 -20 -20 -20 -20 -21 -21 -21 -21 -22 -22 -22 -22 -22 -22 -23 -23 -23 -23 -23 -24 -24 -24 -25 -25 -26 -27 -27 -29 -30 -30 -31
-19 -19 -19 -19 -19 -19 -19 -20 -19 -19 -20 -20 -20 -20 -20 -21 -21 -21 -21 -22 -22 -22 -22 -22 -23 -23 -23 -23 -23 -24 -24 -24 -24 -25 -25 -26 -27 -28 -29 -30 -30 -31 -31 -31
-19 -19 -20 -20 -20 -20 -20 -20 -20 -20 -20 -20 -20 -21 -21 -21 -21 -22 -22 -22 -22 -23 -23 -23 -23 -23 -24 -24 -24 -24 -25 -25 -26 -26 -28 -29 -30 -30 -31 -31 -31 -31 -32 -32
-20 -20 -20 -20 -20 -20 -20 -20 -20 -20 -21 -21 -21 -21 -22 -22 -22 -22 -23 -23 -23 -23 -23 -24 -24 -24 -24 -25 -25 -26 -26 -27 -28 -30 -30 -30 -31 -31 -31 -31 -32 -32 -33 -34
-20 -20 -20 -20 -20 -20 -20 -21 -21 -21 -21 -22 -22 -22 -22 -23 -23 -23 -23 -23 -23 -24 -24 -24 -24 -25 -25 -26 -27 -28 -29 -30 -31 -31 -31 -31 -31 -32 -32 -32 -33 -34 -36 -37
-21 -21 -21 -21 -21 -21 -21 -21 -22 -22 -22 -22 -23 -23 -23 -23 -23 -23 -24 -24 -25 -25 -25 -25 -26 -27 -27 -29 -30 -30 -31 -31 -31 -31 -32 -32 -32 -32 -33 -35 -36 -37 -38 -40

GFSNGP_500_temp_081.txt.gz
Temp
-15 -15 -17 -17 -17 -16 -15 -14 -14 -13 -13 -13 -14 -15 -15 -15 -15 -15 -15 -14 -14 -14 -15 -16 -16 -15 -15 -15 -15 -15 -15 -15 -15 -15 -15 -15 -15 -15 -15 -15 -16 -16 -16 -16
-16 -16 -16 -17 -17 -16 -15 -14 -15 -15 -14 -14 -15 -15 -15 -15 -15 -15 -15 -14 -14 -14 -15 -15 -16 -15 -15 -15 -16 -15 -15 -15 -15 -15 -15 -15 -15 -15 -15 -16 -16 -16 -16 -16
-16 -17 -17 -18 -15 -15 -16 -15 -15 -15 -14 -15 -15 -15 -15 -15 -15 -15 -15 -15 -15 -15 -14 -15 -16 -15 -15 -15 -16 -16 -15 -15 -15 -15 -15 -15 -15 -15 -15 -15 -16 -16 -16 -16
-18 -18 -18 -16 -15 -16 -16 -16 -16 -16 -16 -15 -15 -15 -16 -15 -15 -15 -15 -15 -15 -15 -15 -15 -15 -15 -15 -15 -15 -15 -15 -15 -15 -15 -15 -15 -15 -15 -15 -15 -15 -15 -16 -16
-18 -18 -18 -17 -15 -17 -16 -15 -16 -16 -16 -16 -16 -16 -15 -15 -16 -16 -16 -16 -16 -15 -15 -15 -16 -15 -14 -15 -15 -15 -15 -15 -15 -15 -15 -15 -16 -16 -16 -16 -16 -16 -16 -17
-18 -18 -18 -17 -17 -17 -16 -15 -16 -16 -16 -16 -16 -16 -15 -15 -15 -16 -16 -17 -16 -15 -15 -16 -16 -15 -15 -16 -16 -15 -15 -15 -16 -16 -16 -16 -16 -16 -17 -17 -17 -17 -17 -17
-19 -18 -18 -17 -17 -17 -16 -15 -16 -16 -16 -16 -16 -16 -16 -16 -16 -17 -17 -17 -16 -16 -15 -16 -16 -16 -16 -16 -16 -16 -16 -16 -16 -16 -17 -17 -17 -17 -17 -17 -17 -17 -18 -18
-19 -18 -18 -18 -18 -17 -17 -16 -17 -16 -16 -16 -16 -17 -16 -16 -16 -17 -17 -17 -16 -16 -17 -16 -16 -16 -17 -17 -17 -17 -17 -17 -17 -17 -17 -17 -17 -17 -18 -18 -18 -18 -18 -19
-20 -19 -18 -18 -18 -18 -17 -17 -17 -17 -17 -16 -17 -17 -17 -16 -16 -17 -17 -17 -17 -17 -17 -17 -18 -18 -17 -17 -17 -17 -17 -17 -17 -17 -17 -17 -17 -18 -18 -18 -18 -18 -19 -19
-20 -19 -19 -18 -19 -19 -18 -17 -17 -17 -17 -17 -17 -17 -17 -17 -17 -17 -17 -17 -18 -17 -18 -18 -18 -18 -18 -17 -17 -18 -17 -17 -17 -17 -18 -18 -18 -18 -18 -18 -18 -19 -19 -19
-20 -21 -20 -19 -19 -19 -18 -18 -17 -17 -17 -17 -17 -17 -17 -17 -17 -17 -17 -18 -18 -18 -17 -18 -18 -18 -18 -18 -18 -17 -17 -17 -17 -18 -18 -18 -18 -18 -19 -19 -19 -19 -19 -19
-20 -21 -21 -21 -20 -19 -18 -18 -18 -17 -17 -17 -17 -17 -17 -17 -17 -17 -17 -17 -17 -18 -18 -18 -18 -18 -18 -18 -18 -18 -18 -19 -19 -19 -19 -19 -19 -19 -19 -19 -19 -19 -19 -19
-20 -21 -21 -20 -20 -20 -19 -18 -18 -18 -18 -17 -17 -17 -17 -17 -17 -17 -17 -17 -17 -17 -18 -18 -17 -17 -18 -18 -18 -18 -19 -19 -19 -19 -19 -19 -19 -19 -19 -19 -19 -19 -19 -20
-20 -21 -21 -21 -20 -19 -19 -18 -18 -18 -18 -18 -17 -17 -17 -17 -17 -17 -17 -17 -18 -18 -18 -17 -17 -18 -18 -18 -18 -19 -19 -19 -19 -19 -19 -19 -19 -19 -19 -19 -19 -20 -20 -21
-20 -20 -20 -20 -20 -19 -19 -19 -19 -18 -17 -17 -17 -17 -17 -17 -17 -17 -17 -17 -17 -17 -17 -17 -18 -18 -19 -19 -19 -19 -19 -19 -19 -19 -19 -19 -19 -19 -20 -20 -20 -21 -21 -21
-19 -19 -19 -20 -20 -19 -19 -19 -19 -18 -18 -18 -18 -18 -18 -18 -17 -17 -17 -18 -18 -18 -19 -19 -19 -19 -19 -19 -19 -19 -19 -19 -19 -19 -20 -20 -20 -20 -20 -20 -21 -21 -22 -22
-22 -20 -20 -20 -20 -20 -19 -20 -19 -19 -19 -19 -19 -18 -18 -19 -19 -19 -19 -19 -19 -19 -20 -20 -20 -19 -19 -19 -19 -19 -20 -20 -20 -20 -21 -21 -21 -21 -21 -21 -22 -22 -22 -22
-22 -22 -21 -20 -21 -20 -19 -19 -19 -20 -20 -20 -20 -20 -20 -20 -20 -20 -20 -19 -20 -20 -20 -20 -19 -19 -19 -19 -20 -20 -20 -20 -21 -21 -21 -21 -21 -22 -22 -22 -22 -23 -23 -23
-22 -21 -21 -21 -20 -20 -20 -20 -19 -20 -20 -21 -21 -20 -20 -20 -20 -20 -19 -19 -20 -20 -20 -20 -20 -20 -20 -20 -20 -20 -21 -21 -21 -22 -22 -22 -22 -23 -23 -23 -23 -23 -23 -24
-21 -21 -21 -21 -20 -20 -20 -20 -20 -20 -20 -20 -20 -20 -20 -20 -19 -19 -19 -19 -20 -20 -20 -20 -21 -21 -21 -21 -21 -21 -22 -22 -22 -22 -23 -23 -23 -23 -23 -23 -24 -24 -25 -25
-21 -21 -21 -21 -21 -20 -20 -20 -21 -21 -21 -21 -20 -20 -20 -20 -20 -19 -20 -20 -20 -21 -21 -21 -21 -21 -21 -22 -22 -22 -22 -23 -23 -23 -23 -23 -23 -24 -24 -24 -25 -25 -26 -28
-21 -20 -20 -21 -21 -21 -21 -21 -21 -21 -20 -20 -20 -20 -20 -20 -20 -20 -21 -21 -21 -21 -21 -21 -22 -22 -22 -22 -22 -23 -23 -23 -23 -23 -23 -24 -24 -24 -25 -26 -27 -29 -30 -30
-21 -21 -21 -21 -21 -21 -21 -21 -21 -21 -21 -21 -21 -21 -21 -21 -21 -21 -21 -21 -21 -21 -22 -22 -22 -22 -23 -23 -23 -23 -23 -23 -24 -24 -24 -25 -26 -27 -28 -30 -30 -31 -31 -31
-21 -21 -21 -21 -21 -21 -21 -21 -21 -21 -21 -21 -21 -21 -21 -21 -21 -21 -21 -22 -22 -22 -22 -22 -23 -23 -23 -23 -23 -23 -24 -24 -25 -25 -26 -27 -29 -30 -31 -31 -31 -31 -32 -32
-22 -21 -21 -21 -22 -21 -21 -21 -21 -21 -21 -21 -21 -21 -22 -22 -22 -22 -22 -22 -22 -22 -23 -23 -23 -23 -23 -23 -24 -25 -25 -26 -27 -28 -29 -31 -31 -31 -31 -32 -32 -33 -33 -34
-22 -21 -21 -21 -21 -21 -22 -21 -21 -21 -22 -22 -22 -22 -22 -22 -22 -22 -22 -23 -23 -23 -23 -23 -23 -24 -24 -25 -26 -26 -27 -28 -29 -31 -31 -31 -32 -32 -33 -33 -34 -34 -35 -36
-22 -22 -21 -21 -21 -21 -22 -22 -22 -22 -22 -22 -22 -23 -23 -23 -23 -23 -23 -23 -23 -23 -24 -24 -25 -25 -26 -27 -27 -29 -30 -31 -31 -32 -32 -32 -33 -33 -34 -35 -35 -36 -37 -38